Wetterdaten: Freitag, 14.02.2014
Datum Zeit Temp. Aussen +5cm Feuchte Auss Luftdruck Regen Sonnenschein Regendauer UV Solar Windben
14.02.2014 00:00 3,5 C 1,7 C 92 % 1001,2 hPa 0,0 l/m 0 min 0 min 0,0 UV-I 0 W/m 15,4 km/h (3 Bft)
14.02.2014 00:02 3,5 C 1,7 C 92 % 1001,2 hPa 0,0 l/m 0 min 0 min 0,0 UV-I 0 W/m 7,7 km/h (2 Bft)
14.02.2014 00:04 3,5 C 1,7 C 92 % 1001,2 hPa 0,0 l/m 0 min 0 min 0,0 UV-I 0 W/m 7,7 km/h (2 Bft)
14.02.2014 00:06 3,5 C 1,7 C 91 % 1001,2 hPa 0,0 l/m 0 min 0 min 0,0 UV-I 0 W/m 10,3 km/h (2 Bft)
14.02.2014 00:08 3,4 C 1,7 C 91 % 1001,3 hPa 0,2 l/m 0 min 0 min 0,0 UV-I 0 W/m 10,3 km/h (2 Bft)
14.02.2014 00:10 3,4 C 1,7 C 91 % 1001,4 hPa 0,0 l/m 0 min 0 min 0,0 UV-I 0 W/m 18,0 km/h (3 Bft)
14.02.2014 00:12 3,4 C 1,7 C 91 % 1001,4 hPa 0,0 l/m 0 min 0 min 0,0 UV-I 0 W/m 7,7 km/h (2 Bft)
14.02.2014 00:14 3,4 C 1,7 C 91 % 1001,4 hPa 0,0 l/m 0 min 0 min 0,0 UV-I 0 W/m 12,9 km/h (3 Bft)
14.02.2014 00:16 3,4 C 1,7 C 91 % 1001,4 hPa 0,0 l/m 0 min 0 min 0,0 UV-I 0 W/m 12,9 km/h (3 Bft)
14.02.2014 00:18 3,4 C 1,7 C 91 % 1001,5 hPa 0,0 l/m 0 min 0 min 0,0 UV-I 0 W/m 7,7 km/h (2 Bft)
14.02.2014 00:20 3,4 C 1,7 C 91 % 1001,5 hPa 0,0 l/m 0 min 0 min 0,0 UV-I 0 W/m 15,4 km/h (3 Bft)
14.02.2014 00:22 3,4 C 1,7 C 91 % 1001,6 hPa 0,0 l/m 0 min 0 min 0,0 UV-I 0 W/m 12,9 km/h (3 Bft)
14.02.2014 00:24 3,4 C 1,7 C 91 % 1001,7 hPa 0,0 l/m 0 min 0 min 0,0 UV-I 0 W/m 7,7 km/h (2 Bft)
14.02.2014 00:26 3,4 C 1,7 C 91 % 1001,7 hPa 0,0 l/m 0 min 0 min 0,0 UV-I 0 W/m 15,4 km/h (3 Bft)
14.02.2014 00:28 3,4 C 1,7 C 91 % 1001,7 hPa 0,0 l/m 0 min 0 min 0,0 UV-I 0 W/m 10,3 km/h (2 Bft)
14.02.2014 00:30 3,4 C 1,7 C 91 % 1001,7 hPa 0,0 l/m 0 min 0 min 0,0 UV-I 0 W/m 2,6 km/h (1 Bft)
14.02.2014 00:32 3,4 C 1,7 C 91 % 1001,8 hPa 0,0 l/m 0 min 0 min 0,0 UV-I 0 W/m 2,6 km/h (1 Bft)
14.02.2014 00:34 3,4 C 1,7 C 91 % 1001,9 hPa 0,0 l/m 0 min 0 min 0,0 UV-I 0 W/m 12,9 km/h (3 Bft)
14.02.2014 00:36 3,4 C 1,7 C 91 % 1001,8 hPa 0,0 l/m 0 min 0 min 0,0 UV-I 0 W/m 15,4 km/h (3 Bft)
14.02.2014 00:38 3,4 C 1,7 C 91 % 1001,8 hPa 0,0 l/m 0 min 0 min 0,0 UV-I 0 W/m 10,3 km/h (2 Bft)
14.02.2014 00:40 3,4 C 1,7 C 91 % 1001,9 hPa 0,0 l/m 0 min 0 min 0,0 UV-I 0 W/m 10,3 km/h (2 Bft)
14.02.2014 00:42 3,4 C 1,7 C 91 % 1001,9 hPa 0,0 l/m 0 min 0 min 0,0 UV-I 0 W/m 12,9 km/h (3 Bft)
14.02.2014 00:44 3,4 C 1,7 C 91 % 1002,0 hPa 0,0 l/m 0 min 0 min 0,0 UV-I 0 W/m 12,9 km/h (3 Bft)
14.02.2014 00:46 3,4 C 1,7 C 91 % 1002,0 hPa 0,0 l/m 0 min 0 min 0,0 UV-I 0 W/m 12,9 km/h (3 Bft)
14.02.2014 00:48 3,4 C 1,7 C 90 % 1002,1 hPa 0,0 l/m 0 min 0 min 0,0 UV-I 0 W/m 10,3 km/h (2 Bft)
14.02.2014 00:50 3,4 C 1,7 C 90 % 1002,1 hPa 0,0 l/m 0 min 0 min 0,0 UV-I 0 W/m 10,3 km/h (2 Bft)
14.02.2014 00:52 3,4 C 1,7 C 90 % 1002,1 hPa 0,0 l/m 0 min 0 min 0,0 UV-I 0 W/m 7,7 km/h (2 Bft)
14.02.2014 00:54 3,4 C 1,7 C 90 % 1002,0 hPa 0,0 l/m 0 min 0 min 0,0 UV-I 0 W/m 7,7 km/h (2 Bft)
14.02.2014 00:56 3,4 C 1,7 C 90 % 1002,1 hPa 0,0 l/m 0 min 0 min 0,0 UV-I 0 W/m 20,6 km/h (4 Bft)
14.02.2014 00:58 3,4 C 1,7 C 90 % 1002,2 hPa 0,0 l/m 0 min 0 min 0,0 UV-I 0 W/m 15,4 km/h (3 Bft)
14.02.2014 01:00 3,4 C 1,7 C 90 % 1002,1 hPa 0,0 l/m 0 min 0 min 0,0 UV-I 0 W/m 10,3 km/h (2 Bft)
14.02.2014 01:02 3,4 C 1,7 C 90 % 1002,2 hPa 0,0 l/m 0 min 0 min 0,0 UV-I 0 W/m 12,9 km/h (3 Bft)
14.02.2014 01:04 3,4 C 1,7 C 90 % 1002,3 hPa 0,0 l/m 0 min 0 min 0,0 UV-I 0 W/m 7,7 km/h (2 Bft)
14.02.2014 01:06 3,4 C 1,7 C 90 % 1002,3 hPa 0,0 l/m 0 min 0 min 0,0 UV-I 0 W/m 15,4 km/h (3 Bft)
14.02.2014 01:08 3,4 C 1,7 C 90 % 1002,2 hPa 0,0 l/m 0 min 0 min 0,0 UV-I 0 W/m 10,3 km/h (2 Bft)
14.02.2014 01:10 3,4 C 1,7 C 90 % 1002,2 hPa 0,0 l/m 0 min 0 min 0,0 UV-I 0 W/m 5,1 km/h (1 Bft)
14.02.2014 01:12 3,4 C 1,7 C 90 % 1002,4 hPa 0,0 l/m 0 min 0 min 0,0 UV-I 0 W/m 10,3 km/h (2 Bft)
14.02.2014 01:14 3,4 C 1,7 C 90 % 1002,5 hPa 0,0 l/m 0 min 0 min 0,0 UV-I 0 W/m 10,3 km/h (2 Bft)
14.02.2014 01:16 3,4 C 1,7 C 90 % 1002,5 hPa 0,0 l/m 0 min 0 min 0,0 UV-I 0 W/m 7,7 km/h (2 Bft)
14.02.2014 01:18 3,4 C 1,7 C 90 % 1002,5 hPa 0,0 l/m 0 min 0 min 0,0 UV-I 0 W/m 10,3 km/h (2 Bft)
14.02.2014 01:20 3,4 C 1,7 C 90 % 1002,5 hPa 0,0 l/m 0 min 0 min 0,0 UV-I 0 W/m 7,7 km/h (2 Bft)
14.02.2014 01:22 3,4 C 1,7 C 90 % 1002,5 hPa 0,0 l/m 0 min 0 min 0,0 UV-I 0 W/m 12,9 km/h (3 Bft)
14.02.2014 01:24 3,3 C 1,7 C 90 % 1002,5 hPa 0,0 l/m 0 min 0 min 0,0 UV-I 0 W/m 5,1 km/h (1 Bft)
14.02.2014 01:26 3,3 C 1,7 C 90 % 1002,6 hPa 0,0 l/m 0 min 0 min 0,0 UV-I 0 W/m 7,7 km/h (2 Bft)
14.02.2014 01:28 3,3 C 1,7 C 90 % 1002,6 hPa 0,0 l/m 0 min 0 min 0,0 UV-I 0 W/m 10,3 km/h (2 Bft)
14.02.2014 01:30 3,3 C 1,7 C 90 % 1002,6 hPa 0,0 l/m 0 min 0 min 0,0 UV-I 0 W/m 7,7 km/h (2 Bft)
14.02.2014 01:32 3,3 C 1,7 C 90 % 1002,7 hPa 0,0 l/m 0 min 0 min 0,0 UV-I 0 W/m 10,3 km/h (2 Bft)
14.02.2014 01:34 3,3 C 1,7 C 90 % 1002,6 hPa 0,0 l/m 0 min 0 min 0,0 UV-I 0 W/m 7,7 km/h (2 Bft)
14.02.2014 01:36 3,2 C 1,7 C 90 % 1002,7 hPa 0,0 l/m 0 min 0 min 0,0 UV-I 0 W/m 12,9 km/h (3 Bft)
14.02.2014 01:38 3,2 C 1,7 C 90 % 1002,7 hPa 0,0 l/m 0 min 0 min 0,0 UV-I 0 W/m 5,1 km/h (1 Bft)
14.02.2014 01:40 3,2 C 1,7 C 90 % 1002,9 hPa 0,0 l/m 0 min 0 min 0,0 UV-I 0 W/m 10,3 km/h (2 Bft)
14.02.2014 01:42 3,2 C 1,7 C 90 % 1002,8 hPa 0,0 l/m 0 min 0 min 0,0 UV-I 0 W/m 10,3 km/h (2 Bft)
14.02.2014 01:44 3,2 C 1,7 C 90 % 1002,9 hPa 0,0 l/m 0 min 0 min 0,0 UV-I 0 W/m 10,3 km/h (2 Bft)
14.02.2014 01:46 3,2 C 1,7 C 91 % 1002,9 hPa 0,0 l/m 0 min 0 min 0,0 UV-I 0 W/m 12,9 km/h (3 Bft)
14.02.2014 01:48 3,2 C 1,7 C 91 % 1003,0 hPa 0,0 l/m 0 min 0 min 0,0 UV-I 0 W/m 10,3 km/h (2 Bft)
14.02.2014 01:50 3,2 C 1,7 C 91 % 1003,1 hPa 0,0 l/m 0 min 0 min 0,0 UV-I 0 W/m 7,7 km/h (2 Bft)
14.02.2014 01:52 3,2 C 1,7 C 91 % 1003,1 hPa 0,0 l/m 0 min 0 min 0,0 UV-I 0 W/m 15,4 km/h (3 Bft)
14.02.2014 01:54 3,2 C 1,7 C 91 % 1003,1 hPa 0,0 l/m 0 min 0 min 0,0 UV-I 0 W/m 15,4 km/h (3 Bft)
14.02.2014 01:56 3,2 C 1,7 C 91 % 1003,1 hPa 0,0 l/m 0 min 0 min 0,0 UV-I 0 W/m 25,7 km/h (4 Bft)
14.02.2014 01:58 3,3 C 1,7 C 91 % 1003,2 hPa 0,0 l/m 0 min 0 min 0,0 UV-I 0 W/m 15,4 km/h (3 Bft)
14.02.2014 02:00 3,3 C 1,7 C 91 % 1003,2 hPa 0,0 l/m 0 min 0 min 0,0 UV-I 0 W/m 18,0 km/h (3 Bft)
14.02.2014 02:02 3,3 C 1,7 C 91 % 1003,2 hPa 0,0 l/m 0 min 0 min 0,0 UV-I 0 W/m 23,2 km/h (4 Bft)
14.02.2014 02:04 3,3 C 1,7 C 91 % 1003,2 hPa 0,0 l/m 0 min 0 min 0,0 UV-I 0 W/m 12,9 km/h (3 Bft)
14.02.2014 02:06 3,3 C 1,7 C 91 % 1003,3 hPa 0,0 l/m 0 min 0 min 0,0 UV-I 0 W/m 18,0 km/h (3 Bft)
14.02.2014 02:08 3,3 C 1,7 C 91 % 1003,2 hPa 0,0 l/m 0 min 0 min 0,0 UV-I 0 W/m 7,7 km/h (2 Bft)
14.02.2014 02:10 3,3 C 1,7 C 91 % 1003,4 hPa 0,0 l/m 0 min 0 min 0,0 UV-I 0 W/m 10,3 km/h (2 Bft)
14.02.2014 02:12 3,3 C 1,7 C 91 % 1003,4 hPa 0,0 l/m 0 min 0 min 0,0 UV-I 0 W/m 15,4 km/h (3 Bft)
14.02.2014 02:14 3,3 C 1,7 C 91 % 1003,4 hPa 0,0 l/m 0 min 0 min 0,0 UV-I 0 W/m 20,6 km/h (4 Bft)
14.02.2014 02:16 3,3 C 1,7 C 91 % 1003,5 hPa 0,0 l/m 0 min 0 min 0,0 UV-I 0 W/m 15,4 km/h (3 Bft)
14.02.2014 02:18 3,3 C 1,7 C 91 % 1003,4 hPa 0,0 l/m 0 min 0 min 0,0 UV-I 0 W/m 18,0 km/h (3 Bft)
14.02.2014 02:20 3,3 C 1,7 C 91 % 1003,4 hPa 0,0 l/m 0 min 0 min 0,0 UV-I 0 W/m 5,1 km/h (1 Bft)
14.02.2014 02:22 3,3 C 1,7 C 91 % 1003,4 hPa 0,0 l/m 0 min 0 min 0,0 UV-I 0 W/m 15,4 km/h (3 Bft)
14.02.2014 02:24 3,3 C 1,7 C 91 % 1003,5 hPa 0,0 l/m 0 min 0 min 0,0 UV-I 0 W/m 10,3 km/h (2 Bft)
14.02.2014 02:26 3,3 C 1,7 C 91 % 1003,5 hPa 0,0 l/m 0 min 0 min 0,0 UV-I 0 W/m 10,3 km/h (2 Bft)
14.02.2014 02:28 3,3 C 1,7 C 91 % 1003,6 hPa 0,0 l/m 0 min 0 min 0,0 UV-I 0 W/m 7,7 km/h (2 Bft)
14.02.2014 02:30 3,3 C 1,7 C 91 % 1003,6 hPa 0,0 l/m 0 min 0 min 0,0 UV-I 0 W/m 20,6 km/h (4 Bft)
14.02.2014 02:32 3,3 C 1,7 C 91 % 1003,7 hPa 0,0 l/m 0 min 0 min 0,0 UV-I 0 W/m 18,0 km/h (3 Bft)
14.02.2014 02:34 3,3 C 1,7 C 91 % 1003,6 hPa 0,0 l/m 0 min 0 min 0,0 UV-I 0 W/m 15,4 km/h (3 Bft)
14.02.2014 02:36 3,3 C 1,7 C 91 % 1003,6 hPa 0,0 l/m 0 min 0 min 0,0 UV-I 0 W/m 10,3 km/h (2 Bft)
14.02.2014 02:38 3,3 C 1,7 C 91 % 1003,5 hPa 0,0 l/m 0 min 0 min 0,0 UV-I 0 W/m 12,9 km/h (3 Bft)
14.02.2014 02:40 3,3 C 1,7 C 91 % 1003,6 hPa 0,0 l/m 0 min 0 min 0,0 UV-I 0 W/m 5,1 km/h (1 Bft)
14.02.2014 02:42 3,3 C 1,7 C 91 % 1003,6 hPa 0,0 l/m 0 min 0 min 0,0 UV-I 0 W/m 18,0 km/h (3 Bft)
14.02.2014 02:44 3,3 C 1,7 C 91 % 1003,8 hPa 0,0 l/m 0 min 0 min 0,0 UV-I 0 W/m 7,7 km/h (2 Bft)
14.02.2014 02:46 3,3 C 1,7 C 91 % 1003,8 hPa 0,0 l/m 0 min 0 min 0,0 UV-I 0 W/m 10,3 km/h (2 Bft)
14.02.2014 02:48 3,3 C 1,7 C 91 % 1003,9 hPa 0,0 l/m 0 min 0 min 0,0 UV-I 0 W/m 33,5 km/h (5 Bft)
14.02.2014 02:50 3,3 C 1,7 C 91 % 1003,8 hPa 0,0 l/m 0 min 0 min 0,0 UV-I 0 W/m 23,2 km/h (4 Bft)
14.02.2014 02:52 3,3 C 1,7 C 90 % 1003,8 hPa 0,0 l/m 0 min 0 min 0,0 UV-I 0 W/m 15,4 km/h (3 Bft)
14.02.2014 02:54 3,3 C 1,7 C 90 % 1003,9 hPa 0,0 l/m 0 min 0 min 0,0 UV-I 0 W/m 15,4 km/h (3 Bft)
14.02.2014 02:56 3,3 C 1,7 C 90 % 1003,9 hPa 0,0 l/m 0 min 0 min 0,0 UV-I 0 W/m 15,4 km/h (3 Bft)
14.02.2014 02:58 3,3 C 1,7 C 90 % 1003,9 hPa 0,0 l/m 0 min 0 min 0,0 UV-I 0 W/m 7,7 km/h (2 Bft)
14.02.2014 03:00 3,3 C 1,7 C 90 % 1003,9 hPa 0,0 l/m 0 min 0 min 0,0 UV-I 0 W/m 12,9 km/h (3 Bft)
14.02.2014 03:02 3,3 C 1,7 C 90 % 1004,0 hPa 0,0 l/m 0 min 0 min 0,0 UV-I 0 W/m 18,0 km/h (3 Bft)
14.02.2014 03:04 3,3 C 1,7 C 90 % 1004,1 hPa 0,0 l/m 0 min 0 min 0,0 UV-I 0 W/m 12,9 km/h (3 Bft)
14.02.2014 03:06 3,3 C 1,7 C 90 % 1004,1 hPa 0,0 l/m 0 min 0 min 0,0 UV-I 0 W/m 15,4 km/h (3 Bft)
14.02.2014 03:08 3,3 C 1,7 C 90 % 1004,0 hPa 0,0 l/m 0 min 0 min 0,0 UV-I 0 W/m 12,9 km/h (3 Bft)
14.02.2014 03:10 3,4 C 1,7 C 90 % 1004,1 hPa 0,0 l/m 0 min 0 min 0,0 UV-I 0 W/m 18,0 km/h (3 Bft)
14.02.2014 03:12 3,4 C 1,7 C 90 % 1004,3 hPa 0,0 l/m 0 min 0 min 0,0 UV-I 0 W/m 15,4 km/h (3 Bft)
14.02.2014 03:14 3,4 C 1,7 C 90 % 1004,2 hPa 0,0 l/m 0 min 0 min 0,0 UV-I 0 W/m 15,4 km/h (3 Bft)
14.02.2014 03:16 3,4 C 1,7 C 90 % 1004,2 hPa 0,0 l/m 0 min 0 min 0,0 UV-I 0 W/m 15,4 km/h (3 Bft)
14.02.2014 03:18 3,4 C 1,7 C 90 % 1004,2 hPa 0,0 l/m 0 min 0 min 0,0 UV-I 0 W/m 18,0 km/h (3 Bft)
14.02.2014 03:20 3,4 C 1,7 C 90 % 1004,2 hPa 0,0 l/m 0 min 0 min 0,0 UV-I 0 W/m 15,4 km/h (3 Bft)
14.02.2014 03:22 3,4 C 1,7 C 90 % 1004,1 hPa 0,0 l/m 0 min 0 min 0,0 UV-I 0 W/m 15,4 km/h (3 Bft)
14.02.2014 03:24 3,4 C 1,7 C 90 % 1004,0 hPa 0,0 l/m 0 min 0 min 0,0 UV-I 0 W/m 7,7 km/h (2 Bft)
14.02.2014 03:26 3,4 C 1,7 C 90 % 1004,0 hPa 0,0 l/m 0 min 0 min 0,0 UV-I 0 W/m 18,0 km/h (3 Bft)
14.02.2014 03:28 3,4 C 1,7 C 90 % 1004,1 hPa 0,0 l/m 0 min 0 min 0,0 UV-I 0 W/m 12,9 km/h (3 Bft)
14.02.2014 03:30 3,4 C 1,7 C 90 % 1004,2 hPa 0,0 l/m 0 min 0 min 0,0 UV-I 0 W/m 12,9 km/h (3 Bft)
14.02.2014 03:32 3,3 C 1,7 C 90 % 1004,1 hPa 0,0 l/m 0 min 0 min 0,0 UV-I 0 W/m 10,3 km/h (2 Bft)
14.02.2014 03:34 3,3 C 1,7 C 90 % 1004,2 hPa 0,0 l/m 0 min 0 min 0,0 UV-I 0 W/m 12,9 km/h (3 Bft)
14.02.2014 03:36 3,3 C 1,7 C 90 % 1004,1 hPa 0,0 l/m 0 min 0 min 0,0 UV-I 0 W/m 20,6 km/h (4 Bft)
14.02.2014 03:38 3,3 C 1,7 C 90 % 1004,2 hPa 0,0 l/m 0 min 0 min 0,0 UV-I 0 W/m 15,4 km/h (3 Bft)
14.02.2014 03:40 3,3 C 1,7 C 90 % 1004,2 hPa 0,0 l/m 0 min 0 min 0,0 UV-I 0 W/m 12,9 km/h (3 Bft)
14.02.2014 03:42 3,3 C 1,7 C 90 % 1004,2 hPa 0,0 l/m 0 min 0 min 0,0 UV-I 0 W/m 12,9 km/h (3 Bft)
14.02.2014 03:44 3,3 C 1,7 C 90 % 1004,2 hPa 0,0 l/m 0 min 0 min 0,0 UV-I 0 W/m 18,0 km/h (3 Bft)
14.02.2014 03:46 3,3 C 1,7 C 90 % 1004,2 hPa 0,0 l/m 0 min 0 min 0,0 UV-I 0 W/m 12,9 km/h (3 Bft)
14.02.2014 03:48 3,3 C 1,7 C 90 % 1004,2 hPa 0,0 l/m 0 min 0 min 0,0 UV-I 0 W/m 18,0 km/h (3 Bft)
14.02.2014 03:50 3,3 C 1,7 C 90 % 1004,2 hPa 0,0 l/m 0 min 0 min 0,0 UV-I 0 W/m 5,1 km/h (1 Bft)
14.02.2014 03:52 3,2 C 1,7 C 89 % 1004,3 hPa 0,0 l/m 0 min 0 min 0,0 UV-I 0 W/m 12,9 km/h (3 Bft)
14.02.2014 03:54 3,2 C 1,7 C 90 % 1004,3 hPa 0,0 l/m 0 min 0 min 0,0 UV-I 0 W/m 2,6 km/h (1 Bft)
14.02.2014 03:56 3,2 C 1,7 C 90 % 1004,2 hPa 0,0 l/m 0 min 0 min 0,0 UV-I 0 W/m 18,0 km/h (3 Bft)
14.02.2014 03:58 3,2 C 1,7 C 90 % 1004,2 hPa 0,0 l/m 0 min 0 min 0,0 UV-I 0 W/m 10,3 km/h (2 Bft)
14.02.2014 04:00 3,2 C 1,7 C 90 % 1004,3 hPa 0,0 l/m 0 min 0 min 0,0 UV-I 0 W/m 12,9 km/h (3 Bft)
14.02.2014 04:02 3,2 C 1,7 C 90 % 1004,3 hPa 0,0 l/m 0 min 0 min 0,0 UV-I 0 W/m 10,3 km/h (2 Bft)
14.02.2014 04:04 3,2 C 1,7 C 89 % 1004,3 hPa 0,0 l/m 0 min 0 min 0,0 UV-I 0 W/m 5,1 km/h (1 Bft)
14.02.2014 04:06 3,2 C 1,7 C 89 % 1004,2 hPa 0,0 l/m 0 min 0 min 0,0 UV-I 0 W/m 10,3 km/h (2 Bft)
14.02.2014 04:08 3,2 C 1,7 C 89 % 1004,2 hPa 0,0 l/m 0 min 0 min 0,0 UV-I 0 W/m 10,3 km/h (2 Bft)
14.02.2014 04:10 3,2 C 1,7 C 89 % 1004,2 hPa 0,0 l/m 0 min 0 min 0,0 UV-I 0 W/m 10,3 km/h (2 Bft)
14.02.2014 04:12 3,2 C 1,7 C 89 % 1004,3 hPa 0,0 l/m 0 min 0 min 0,0 UV-I 0 W/m 10,3 km/h (2 Bft)
14.02.2014 04:14 3,1 C 1,7 C 89 % 1004,3 hPa 0,0 l/m 0 min 0 min 0,0 UV-I 0 W/m 12,9 km/h (3 Bft)
14.02.2014 04:16 3,1 C 1,7 C 89 % 1004,4 hPa 0,0 l/m 0 min 0 min 0,0 UV-I 0 W/m 7,7 km/h (2 Bft)
14.02.2014 04:18 3,1 C 1,7 C 89 % 1004,3 hPa 0,0 l/m 0 min 0 min 0,0 UV-I 0 W/m 18,0 km/h (3 Bft)
14.02.2014 04:20 3,1 C 1,7 C 89 % 1004,3 hPa 0,0 l/m 0 min 0 min 0,0 UV-I 0 W/m 10,3 km/h (2 Bft)
14.02.2014 04:22 3,1 C 1,7 C 89 % 1004,3 hPa 0,0 l/m 0 min 0 min 0,0 UV-I 0 W/m 12,9 km/h (3 Bft)
14.02.2014 04:24 3,1 C 1,7 C 89 % 1004,3 hPa 0,0 l/m 0 min 0 min 0,0 UV-I 0 W/m 10,3 km/h (2 Bft)
14.02.2014 04:26 3,1 C 1,7 C 89 % 1004,3 hPa 0,0 l/m 0 min 0 min 0,0 UV-I 0 W/m 18,0 km/h (3 Bft)
14.02.2014 04:28 3,1 C 1,7 C 89 % 1004,3 hPa 0,0 l/m 0 min 0 min 0,0 UV-I 0 W/m 10,3 km/h (2 Bft)
14.02.2014 04:30 3,1 C 1,7 C 89 % 1004,3 hPa 0,0 l/m 0 min 0 min 0,0 UV-I 0 W/m 7,7 km/h (2 Bft)
14.02.2014 04:32 3,1 C 1,7 C 89 % 1004,3 hPa 0,0 l/m 0 min 0 min 0,0 UV-I 0 W/m 10,3 km/h (2 Bft)
14.02.2014 04:34 3,0 C 1,1 C 89 % 1004,3 hPa 0,0 l/m 0 min 0 min 0,0 UV-I 0 W/m 7,7 km/h (2 Bft)
14.02.2014 04:36 3,0 C 1,1 C 89 % 1004,4 hPa 0,0 l/m 0 min 0 min 0,0 UV-I 0 W/m 5,1 km/h (1 Bft)
14.02.2014 04:38 2,9 C 1,1 C 89 % 1004,6 hPa 0,0 l/m 0 min 0 min 0,0 UV-I 0 W/m 15,4 km/h (3 Bft)
14.02.2014 04:40 2,9 C 1,1 C 89 % 1004,5 hPa 0,0 l/m 0 min 0 min 0,0 UV-I 0 W/m 12,9 km/h (3 Bft)
14.02.2014 04:42 2,9 C 1,1 C 90 % 1004,4 hPa 0,0 l/m 0 min 0 min 0,0 UV-I 0 W/m 10,3 km/h (2 Bft)
14.02.2014 04:44 2,9 C 1,1 C 90 % 1004,4 hPa 0,0 l/m 0 min 0 min 0,0 UV-I 0 W/m 18,0 km/h (3 Bft)
14.02.2014 04:46 3,0 C 1,7 C 90 % 1004,4 hPa 0,0 l/m 0 min 0 min 0,0 UV-I 0 W/m 10,3 km/h (2 Bft)
14.02.2014 04:48 3,0 C 1,7 C 90 % 1004,4 hPa 0,0 l/m 0 min 0 min 0,0 UV-I 0 W/m 15,4 km/h (3 Bft)
14.02.2014 04:50 3,0 C 1,7 C 90 % 1004,4 hPa 0,0 l/m 0 min 0 min 0,0 UV-I 0 W/m 18,0 km/h (3 Bft)
14.02.2014 04:52 3,0 C 1,7 C 89 % 1004,4 hPa 0,0 l/m 0 min 0 min 0,0 UV-I 0 W/m 15,4 km/h (3 Bft)
14.02.2014 04:54 3,1 C 1,7 C 89 % 1004,5 hPa 0,0 l/m 0 min 0 min 0,0 UV-I 0 W/m 20,6 km/h (4 Bft)
14.02.2014 04:56 3,0 C 1,7 C 89 % 1004,6 hPa 0,0 l/m 0 min 0 min 0,0 UV-I 0 W/m 20,6 km/h (4 Bft)
14.02.2014 04:58 3,0 C 1,1 C 89 % 1004,6 hPa 0,0 l/m 0 min 0 min 0,0 UV-I 0 W/m 12,9 km/h (3 Bft)
14.02.2014 05:00 3,0 C 1,1 C 89 % 1004,6 hPa 0,0 l/m 0 min 0 min 0,0 UV-I 0 W/m 10,3 km/h (2 Bft)
14.02.2014 05:02 3,0 C 1,1 C 89 % 1004,5 hPa 0,0 l/m 0 min 0 min 0,0 UV-I 0 W/m 18,0 km/h (3 Bft)
14.02.2014 05:04 3,0 C 1,1 C 89 % 1004,5 hPa 0,0 l/m 0 min 0 min 0,0 UV-I 0 W/m 15,4 km/h (3 Bft)
14.02.2014 05:06 2,9 C 1,1 C 89 % 1004,5 hPa 0,0 l/m 0 min 0 min 0,0 UV-I 0 W/m 15,4 km/h (3 Bft)
14.02.2014 05:08 2,9 C 1,1 C 89 % 1004,6 hPa 0,0 l/m 0 min 0 min 0,0 UV-I 0 W/m 10,3 km/h (2 Bft)
14.02.2014 05:10 2,9 C 1,1 C 89 % 1004,6 hPa 0,0 l/m 0 min 0 min 0,0 UV-I 0 W/m 7,7 km/h (2 Bft)
14.02.2014 05:12 2,9 C 1,1 C 89 % 1004,6 hPa 0,0 l/m 0 min 0 min 0,0 UV-I 0 W/m 12,9 km/h (3 Bft)
14.02.2014 05:14 2,9 C 1,1 C 89 % 1004,6 hPa 0,0 l/m 0 min 0 min 0,0 UV-I 0 W/m 7,7 km/h (2 Bft)
14.02.2014 05:16 2,9 C 1,1 C 89 % 1004,6 hPa 0,0 l/m 0 min 0 min 0,0 UV-I 0 W/m 10,3 km/h (2 Bft)
14.02.2014 05:18 2,9 C 1,1 C 89 % 1004,6 hPa 0,0 l/m 0 min 0 min 0,0 UV-I 0 W/m 5,1 km/h (1 Bft)
14.02.2014 05:20 2,9 C 1,1 C 89 % 1004,7 hPa 0,0 l/m 0 min 0 min 0,0 UV-I 0 W/m 10,3 km/h (2 Bft)
14.02.2014 05:22 2,9 C 1,1 C 89 % 1004,7 hPa 0,0 l/m 0 min 0 min 0,0 UV-I 0 W/m 12,9 km/h (3 Bft)
14.02.2014 05:24 2,9 C 1,1 C 90 % 1004,6 hPa 0,0 l/m 0 min 0 min 0,0 UV-I 0 W/m 15,4 km/h (3 Bft)
14.02.2014 05:26 2,8 C 1,1 C 90 % 1004,7 hPa 0,0 l/m 0 min 0 min 0,0 UV-I 0 W/m 5,1 km/h (1 Bft)
14.02.2014 05:28 2,8 C 1,1 C 90 % 1004,6 hPa 0,0 l/m 0 min 0 min 0,0 UV-I 0 W/m 5,1 km/h (1 Bft)
14.02.2014 05:30 2,8 C 1,1 C 89 % 1004,6 hPa 0,0 l/m 0 min 0 min 0,0 UV-I 0 W/m 7,7 km/h (2 Bft)
14.02.2014 05:32 2,8 C 1,1 C 89 % 1004,6 hPa 0,0 l/m 0 min 0 min 0,0 UV-I 0 W/m 10,3 km/h (2 Bft)
14.02.2014 05:34 2,8 C 1,1 C 89 % 1004,7 hPa 0,0 l/m 0 min 0 min 0,0 UV-I 0 W/m 2,6 km/h (1 Bft)
14.02.2014 05:36 2,8 C 1,1 C 90 % 1004,7 hPa 0,0 l/m 0 min 0 min 0,0 UV-I 0 W/m 7,7 km/h (2 Bft)
14.02.2014 05:38 2,7 C 1,1 C 90 % 1004,8 hPa 0,0 l/m 0 min 0 min 0,0 UV-I 0 W/m 10,3 km/h (2 Bft)
14.02.2014 05:40 2,7 C 1,1 C 90 % 1004,8 hPa 0,0 l/m 0 min 0 min 0,0 UV-I 0 W/m 7,7 km/h (2 Bft)
14.02.2014 05:42 2,7 C 1,1 C 90 % 1004,8 hPa 0,0 l/m 0 min 0 min 0,0 UV-I 0 W/m 7,7 km/h (2 Bft)
14.02.2014 05:44 2,7 C 0,6 C 90 % 1004,9 hPa 0,0 l/m 0 min 0 min 0,0 UV-I 0 W/m 2,6 km/h (1 Bft)
14.02.2014 05:46 2,6 C 0,6 C 90 % 1004,9 hPa 0,0 l/m 0 min 0 min 0,0 UV-I 0 W/m 2,6 km/h (1 Bft)
14.02.2014 05:48 2,6 C 1,1 C 90 % 1004,9 hPa 0,0 l/m 0 min 0 min 0,0 UV-I 0 W/m 10,3 km/h (2 Bft)
14.02.2014 05:50 2,6 C 1,1 C 90 % 1004,9 hPa 0,0 l/m 0 min 0 min 0,0 UV-I 0 W/m 5,1 km/h (1 Bft)
14.02.2014 05:52 2,6 C 1,1 C 90 % 1004,9 hPa 0,0 l/m 0 min 0 min 0,0 UV-I 0 W/m 12,9 km/h (3 Bft)
14.02.2014 05:54 2,6 C 1,1 C 90 % 1005,0 hPa 0,0 l/m 0 min 0 min 0,0 UV-I 0 W/m 7,7 km/h (2 Bft)
14.02.2014 05:56 2,5 C 0,6 C 90 % 1005,0 hPa 0,0 l/m 0 min 0 min 0,0 UV-I 0 W/m 15,4 km/h (3 Bft)
14.02.2014 05:58 2,4 C 0,6 C 90 % 1004,9 hPa 0,0 l/m 0 min 0 min 0,0 UV-I 0 W/m 7,7 km/h (2 Bft)
14.02.2014 06:00 2,4 C 0,6 C 91 % 1005,0 hPa 0,0 l/m 0 min 0 min 0,0 UV-I 0 W/m 10,3 km/h (2 Bft)
14.02.2014 06:02 2,4 C 0,6 C 91 % 1005,0 hPa 0,0 l/m 0 min 0 min 0,0 UV-I 0 W/m 12,9 km/h (3 Bft)
14.02.2014 06:04 2,4 C 0,6 C 91 % 1005,0 hPa 0,0 l/m 0 min 0 min 0,0 UV-I 0 W/m 7,7 km/h (2 Bft)
14.02.2014 06:06 2,4 C 0,6 C 91 % 1005,1 hPa 0,0 l/m 0 min 0 min 0,0 UV-I 0 W/m 12,9 km/h (3 Bft)
14.02.2014 06:08 2,4 C 0,6 C 91 % 1005,0 hPa 0,0 l/m 0 min 0 min 0,0 UV-I 0 W/m 0,0 km/h (0 Bft)
14.02.2014 06:10 2,4 C 0,6 C 91 % 1005,0 hPa 0,0 l/m 0 min 0 min 0,0 UV-I 0 W/m 0,0 km/h (0 Bft)
14.02.2014 06:12 2,4 C 0,6 C 91 % 1005,0 hPa 0,0 l/m 0 min 0 min 0,0 UV-I 0 W/m 10,3 km/h (2 Bft)
14.02.2014 06:14 2,4 C 0,6 C 91 % 1004,9 hPa 0,0 l/m 0 min 0 min 0,0 UV-I 0 W/m 7,7 km/h (2 Bft)
14.02.2014 06:16 2,4 C 0,6 C 91 % 1004,9 hPa 0,0 l/m 0 min 0 min 0,0 UV-I 0 W/m 0,0 km/h (0 Bft)
14.02.2014 06:18 2,3 C 0,6 C 91 % 1004,9 hPa 0,0 l/m 0 min 0 min 0,0 UV-I 0 W/m 0,0 km/h (0 Bft)
14.02.2014 06:20 2,3 C 0,6 C 91 % 1004,9 hPa 0,0 l/m 0 min 0 min 0,0 UV-I 0 W/m 5,1 km/h (1 Bft)
14.02.2014 06:22 2,3 C 0,6 C 91 % 1005,0 hPa 0,0 l/m 0 min 0 min 0,0 UV-I 0 W/m 0,0 km/h (0 Bft)
14.02.2014 06:24 2,3 C 0,6 C 91 % 1005,0 hPa 0,0 l/m 0 min 0 min 0,0 UV-I 0 W/m 0,0 km/h (0 Bft)
14.02.2014 06:26 2,3 C 0,6 C 91 % 1005,0 hPa 0,0 l/m 0 min 0 min 0,0 UV-I 0 W/m 7,7 km/h (2 Bft)
14.02.2014 06:28 2,2 C 0,6 C 91 % 1005,1 hPa 0,0 l/m 0 min 0 min 0,0 UV-I 0 W/m 5,1 km/h (1 Bft)
14.02.2014 06:30 2,2 C 0,6 C 91 % 1005,1 hPa 0,0 l/m 0 min 0 min 0,0 UV-I 0 W/m 0,0 km/h (0 Bft)
14.02.2014 06:32 2,2 C 0,0 C 91 % 1005,0 hPa 0,0 l/m 0 min 0 min 0,0 UV-I 0 W/m 0,0 km/h (0 Bft)
14.02.2014 06:34 2,2 C 0,0 C 91 % 1005,1 hPa 0,0 l/m 0 min 0 min 0,0 UV-I 0 W/m 5,1 km/h (1 Bft)
14.02.2014 06:36 2,1 C 0,0 C 91 % 1005,1 hPa 0,0 l/m 0 min 0 min 0,0 UV-I 0 W/m 2,6 km/h (1 Bft)
14.02.2014 06:38 2,1 C 0,0 C 91 % 1005,1 hPa 0,0 l/m 0 min 0 min 0,0 UV-I 0 W/m 0,0 km/h (0 Bft)
14.02.2014 06:40 2,0 C 0,0 C 92 % 1005,1 hPa 0,0 l/m 0 min 0 min 0,0 UV-I 0 W/m 5,1 km/h (1 Bft)
14.02.2014 06:42 1,9 C 0,0 C 92 % 1005,1 hPa 0,0 l/m 0 min 0 min 0,0 UV-I 0 W/m 5,1 km/h (1 Bft)
14.02.2014 06:44 1,9 C 0,0 C 92 % 1005,1 hPa 0,0 l/m 0 min 0 min 0,0 UV-I 0 W/m 2,6 km/h (1 Bft)
14.02.2014 06:46 1,9 C 0,0 C 92 % 1005,2 hPa 0,0 l/m 0 min 0 min 0,0 UV-I 0 W/m 5,1 km/h (1 Bft)
14.02.2014 06:48 1,9 C 0,0 C 92 % 1005,1 hPa 0,0 l/m 0 min 0 min 0,0 UV-I 0 W/m 7,7 km/h (2 Bft)
14.02.2014 06:50 1,9 C 0,0 C 92 % 1005,1 hPa 0,0 l/m 0 min 0 min 0,0 UV-I 0 W/m 10,3 km/h (2 Bft)
14.02.2014 06:52 1,9 C 0,0 C 92 % 1005,2 hPa 0,0 l/m 0 min 0 min 0,0 UV-I 0 W/m 7,7 km/h (2 Bft)
14.02.2014 06:54 1,9 C 0,0 C 92 % 1005,3 hPa 0,0 l/m 0 min 0 min 0,0 UV-I 0 W/m 5,1 km/h (1 Bft)
14.02.2014 06:56 1,9 C 0,0 C 92 % 1005,2 hPa 0,0 l/m 0 min 0 min 0,0 UV-I 0 W/m 2,6 km/h (1 Bft)
14.02.2014 06:58 1,8 C 0,0 C 92 % 1005,3 hPa 0,0 l/m 0 min 0 min 0,0 UV-I 0 W/m 7,7 km/h (2 Bft)
14.02.2014 07:00 1,8 C 0,0 C 92 % 1005,4 hPa 0,0 l/m 0 min 0 min 0,0 UV-I 0 W/m 0,0 km/h (0 Bft)
14.02.2014 07:02 1,8 C 0,0 C 92 % 1005,4 hPa 0,0 l/m 0 min 0 min 0,0 UV-I 0 W/m 10,3 km/h (2 Bft)
14.02.2014 07:04 1,8 C 0,0 C 92 % 1005,4 hPa 0,0 l/m 0 min 0 min 0,0 UV-I 0 W/m 7,7 km/h (2 Bft)
14.02.2014 07:06 1,7 C 0,0 C 92 % 1005,5 hPa 0,0 l/m 0 min 0 min 0,0 UV-I 0 W/m 10,3 km/h (2 Bft)
14.02.2014 07:08 1,7 C 0,0 C 92 % 1005,6 hPa 0,0 l/m 0 min 0 min 0,0 UV-I 0 W/m 12,9 km/h (3 Bft)
14.02.2014 07:10 1,8 C 0,0 C 92 % 1005,5 hPa 0,0 l/m 0 min 0 min 0,0 UV-I 0 W/m 2,6 km/h (1 Bft)
14.02.2014 07:12 1,8 C 0,0 C 92 % 1005,6 hPa 0,0 l/m 0 min 0 min 0,0 UV-I 0 W/m 5,1 km/h (1 Bft)
14.02.2014 07:14 1,7 C 0,0 C 92 % 1005,5 hPa 0,0 l/m 0 min 0 min 0,0 UV-I 0 W/m 0,0 km/h (0 Bft)
14.02.2014 07:16 1,7 C 0,0 C 93 % 1005,6 hPa 0,0 l/m 0 min 0 min 0,0 UV-I 0 W/m 0,0 km/h (0 Bft)
14.02.2014 07:18 1,7 C 0,0 C 93 % 1005,5 hPa 0,0 l/m 0 min 0 min 0,0 UV-I 0 W/m 7,7 km/h (2 Bft)
14.02.2014 07:20 1,7 C -0,6 C 93 % 1005,6 hPa 0,0 l/m 0 min 0 min 0,0 UV-I 0 W/m 2,6 km/h (1 Bft)
14.02.2014 07:22 1,7 C 0,0 C 93 % 1005,5 hPa 0,0 l/m 0 min 0 min 0,0 UV-I 0 W/m 7,7 km/h (2 Bft)
14.02.2014 07:24 1,7 C 0,0 C 93 % 1005,5 hPa 0,0 l/m 0 min 0 min 0,0 UV-I 0 W/m 7,7 km/h (2 Bft)
14.02.2014 07:26 1,7 C 0,0 C 93 % 1005,5 hPa 0,0 l/m 0 min 0 min 0,0 UV-I 0 W/m 0,0 km/h (0 Bft)
14.02.2014 07:28 1,8 C 0,0 C 93 % 1005,5 hPa 0,0 l/m 0 min 0 min 0,0 UV-I 0 W/m 2,6 km/h (1 Bft)
14.02.2014 07:30 1,8 C 0,0 C 93 % 1005,5 hPa 0,0 l/m 0 min 0 min 0,0 UV-I 0 W/m 5,1 km/h (1 Bft)
14.02.2014 07:32 1,8 C 0,0 C 93 % 1005,4 hPa 0,0 l/m 0 min 0 min 0,0 UV-I 0 W/m 5,1 km/h (1 Bft)
14.02.2014 07:34 1,8 C 0,0 C 93 % 1005,5 hPa 0,0 l/m 0 min 0 min 0,0 UV-I 0 W/m 0,0 km/h (0 Bft)
14.02.2014 07:36 1,9 C 0,0 C 93 % 1005,5 hPa 0,0 l/m 0 min 0 min 0,0 UV-I 0 W/m 0,0 km/h (0 Bft)
14.02.2014 07:38 1,9 C 0,0 C 93 % 1005,7 hPa 0,0 l/m 0 min 0 min 0,0 UV-I 0 W/m 0,0 km/h (0 Bft)
14.02.2014 07:40 1,9 C 0,0 C 93 % 1005,7 hPa 0,0 l/m 0 min 0 min 0,0 UV-I 0 W/m 2,6 km/h (1 Bft)
14.02.2014 07:42 1,9 C 0,0 C 93 % 1005,7 hPa 0,0 l/m 0 min 0 min 0,0 UV-I 0 W/m 0,0 km/h (0 Bft)
14.02.2014 07:44 1,9 C 0,0 C 93 % 1005,7 hPa 0,0 l/m 0 min 0 min 0,0 UV-I 5 W/m 10,3 km/h (2 Bft)
14.02.2014 07:46 1,9 C 0,0 C 93 % 1005,8 hPa 0,0 l/m 0 min 0 min 0,0 UV-I 5 W/m 2,6 km/h (1 Bft)
14.02.2014 07:48 1,9 C 0,0 C 93 % 1005,7 hPa 0,0 l/m 0 min 0 min 0,0 UV-I 7 W/m 0,0 km/h (0 Bft)
14.02.2014 07:50 1,9 C 0,0 C 93 % 1005,8 hPa 0,0 l/m 0 min 0 min 0,0 UV-I 7 W/m 5,1 km/h (1 Bft)
14.02.2014 07:52 1,8 C 0,0 C 93 % 1005,8 hPa 0,0 l/m 0 min 0 min 0,0 UV-I 9 W/m 5,1 km/h (1 Bft)
14.02.2014 07:54 1,8 C 0,0 C 93 % 1005,8 hPa 0,0 l/m 0 min 0 min 0,0 UV-I 11 W/m 7,7 km/h (2 Bft)
14.02.2014 07:56 1,8 C 0,0 C 93 % 1005,8 hPa 0,0 l/m 0 min 0 min 0,0 UV-I 11 W/m 7,7 km/h (2 Bft)
14.02.2014 07:58 1,8 C 0,0 C 93 % 1006,1 hPa 0,0 l/m 0 min 0 min 0,0 UV-I 12 W/m 0,0 km/h (0 Bft)
14.02.2014 08:00 1,8 C 0,0 C 93 % 1006,1 hPa 0,0 l/m 0 min 0 min 0,0 UV-I 12 W/m 5,1 km/h (1 Bft)
14.02.2014 08:02 1,7 C 0,0 C 93 % 1006,1 hPa 0,0 l/m 0 min 0 min 0,0 UV-I 14 W/m 5,1 km/h (1 Bft)
14.02.2014 08:04 1,7 C 0,0 C 93 % 1006,0 hPa 0,0 l/m 0 min 0 min 0,0 UV-I 16 W/m 0,0 km/h (0 Bft)
14.02.2014 08:06 1,7 C 0,0 C 93 % 1006,0 hPa 0,0 l/m 0 min 0 min 0,0 UV-I 16 W/m 5,1 km/h (1 Bft)
14.02.2014 08:08 1,7 C 0,0 C 93 % 1006,1 hPa 0,0 l/m 0 min 0 min 0,0 UV-I 19 W/m 5,1 km/h (1 Bft)
14.02.2014 08:10 1,7 C 0,0 C 93 % 1005,9 hPa 0,0 l/m 2 min 0 min 0,0 UV-I 21 W/m 7,7 km/h (2 Bft)
14.02.2014 08:12 1,7 C 0,0 C 93 % 1006,1 hPa 0,0 l/m 0 min 0 min 0,0 UV-I 21 W/m 5,1 km/h (1 Bft)
14.02.2014 08:14 1,7 C 0,0 C 93 % 1006,1 hPa 0,0 l/m 0 min 0 min 0,0 UV-I 23 W/m 0,0 km/h (0 Bft)
14.02.2014 08:16 1,7 C 0,0 C 93 % 1006,1 hPa 0,0 l/m 0 min 0 min 0,0 UV-I 25 W/m 12,9 km/h (3 Bft)
14.02.2014 08:18 1,7 C 0,0 C 93 % 1006,1 hPa 0,0 l/m 0 min 0 min 0,0 UV-I 25 W/m 5,1 km/h (1 Bft)
14.02.2014 08:20 1,7 C 0,0 C 93 % 1006,1 hPa 0,0 l/m 0 min 0 min 0,0 UV-I 26 W/m 7,7 km/h (2 Bft)
14.02.2014 08:22 1,8 C 0,0 C 93 % 1006,1 hPa 0,0 l/m 0 min 0 min 0,0 UV-I 28 W/m 5,1 km/h (1 Bft)
14.02.2014 08:24 1,8 C 0,6 C 93 % 1006,1 hPa 0,0 l/m 0 min 0 min 0,0 UV-I 30 W/m 5,1 km/h (1 Bft)
14.02.2014 08:26 1,8 C 0,6 C 93 % 1006,1 hPa 0,0 l/m 0 min 0 min 0,0 UV-I 32 W/m 5,1 km/h (1 Bft)
14.02.2014 08:28 1,8 C 0,6 C 93 % 1006,1 hPa 0,0 l/m 0 min 0 min 0,0 UV-I 32 W/m 0,0 km/h (0 Bft)
14.02.2014 08:30 1,9 C 0,6 C 93 % 1006,2 hPa 0,0 l/m 0 min 0 min 0,0 UV-I 33 W/m 10,3 km/h (2 Bft)
14.02.2014 08:32 1,9 C 0,6 C 93 % 1006,2 hPa 0,0 l/m 0 min 0 min 0,0 UV-I 33 W/m 0,0 km/h (0 Bft)
14.02.2014 08:34 1,9 C 0,6 C 93 % 1006,1 hPa 0,0 l/m 0 min 0 min 0,0 UV-I 35 W/m 0,0 km/h (0 Bft)
14.02.2014 08:36 1,9 C 0,6 C 93 % 1006,1 hPa 0,0 l/m 0 min 0 min 0,0 UV-I 37 W/m 5,1 km/h (1 Bft)
14.02.2014 08:38 2,0 C 0,6 C 93 % 1006,1 hPa 0,0 l/m 0 min 0 min 0,0 UV-I 40 W/m 0,0 km/h (0 Bft)
14.02.2014 08:40 2,1 C 0,6 C 93 % 1006,1 hPa 0,0 l/m 0 min 0 min 0,0 UV-I 42 W/m 5,1 km/h (1 Bft)
14.02.2014 08:42 2,1 C 0,6 C 93 % 1006,1 hPa 0,0 l/m 0 min 0 min 0,0 UV-I 42 W/m 0,0 km/h (0 Bft)
14.02.2014 08:44 2,1 C 0,6 C 93 % 1006,1 hPa 0,0 l/m 0 min 0 min 0,0 UV-I 49 W/m 0,0 km/h (0 Bft)
14.02.2014 08:46 2,2 C 0,6 C 93 % 1006,2 hPa 0,0 l/m 0 min 0 min 0,0 UV-I 51 W/m 0,0 km/h (0 Bft)
14.02.2014 08:48 2,3 C 0,6 C 93 % 1006,2 hPa 0,0 l/m 0 min 0 min 0,0 UV-I 53 W/m 0,0 km/h (0 Bft)
14.02.2014 08:50 2,3 C 0,6 C 93 % 1006,2 hPa 0,0 l/m 0 min 0 min 0,0 UV-I 53 W/m 0,0 km/h (0 Bft)
14.02.2014 08:52 2,4 C 1,1 C 93 % 1006,3 hPa 0,0 l/m 0 min 0 min 0,0 UV-I 54 W/m 7,7 km/h (2 Bft)
14.02.2014 08:54 2,4 C 1,1 C 93 % 1006,3 hPa 0,0 l/m 0 min 0 min 0,0 UV-I 51 W/m 12,9 km/h (3 Bft)
14.02.2014 08:56 2,5 C 1,1 C 93 % 1006,3 hPa 0,0 l/m 0 min 0 min 0,0 UV-I 51 W/m 0,0 km/h (0 Bft)
14.02.2014 08:58 2,6 C 1,1 C 93 % 1006,4 hPa 0,0 l/m 0 min 0 min 0,0 UV-I 51 W/m 2,6 km/h (1 Bft)
14.02.2014 09:00 2,6 C 1,1 C 93 % 1006,4 hPa 0,0 l/m 0 min 0 min 0,0 UV-I 54 W/m 5,1 km/h (1 Bft)
14.02.2014 09:02 2,7 C 1,1 C 92 % 1006,4 hPa 0,0 l/m 2 min 0 min 0,0 UV-I 90 W/m 12,9 km/h (3 Bft)
14.02.2014 09:04 2,7 C 1,1 C 92 % 1006,4 hPa 0,0 l/m 2 min 0 min 0,0 UV-I 107 W/m 7,7 km/h (2 Bft)
14.02.2014 09:06 2,8 C 1,1 C 92 % 1006,4 hPa 0,0 l/m 2 min 0 min 0,0 UV-I 111 W/m 2,6 km/h (1 Bft)
14.02.2014 09:08 2,8 C 1,1 C 92 % 1006,3 hPa 0,0 l/m 2 min 0 min 0,0 UV-I 127 W/m 7,7 km/h (2 Bft)
14.02.2014 09:10 2,9 C 1,7 C 92 % 1006,3 hPa 0,0 l/m 2 min 0 min 0,0 UV-I 127 W/m 2,6 km/h (1 Bft)
14.02.2014 09:12 2,9 C 1,7 C 92 % 1006,3 hPa 0,0 l/m 2 min 0 min 0,0 UV-I 163 W/m 12,9 km/h (3 Bft)
14.02.2014 09:14 3,1 C 1,7 C 92 % 1006,2 hPa 0,0 l/m 2 min 0 min 0,0 UV-I 167 W/m 7,7 km/h (2 Bft)
14.02.2014 09:16 3,1 C 1,7 C 92 % 1006,3 hPa 0,0 l/m 2 min 0 min 0,0 UV-I 172 W/m 15,4 km/h (3 Bft)
14.02.2014 09:18 3,2 C 2,2 C 91 % 1006,3 hPa 0,0 l/m 2 min 0 min 0,0 UV-I 165 W/m 10,3 km/h (2 Bft)
14.02.2014 09:20 3,3 C 2,2 C 91 % 1006,3 hPa 0,0 l/m 2 min 0 min 0,0 UV-I 151 W/m 2,6 km/h (1 Bft)
14.02.2014 09:22 3,4 C 2,2 C 91 % 1006,3 hPa 0,0 l/m 2 min 0 min 0,0 UV-I 134 W/m 7,7 km/h (2 Bft)
14.02.2014 09:24 3,4 C 2,2 C 91 % 1006,3 hPa 0,0 l/m 2 min 0 min 0,0 UV-I 127 W/m 7,7 km/h (2 Bft)
14.02.2014 09:26 3,6 C 2,2 C 91 % 1006,3 hPa 0,0 l/m 2 min 0 min 0,0 UV-I 128 W/m 15,4 km/h (3 Bft)
14.02.2014 09:28 3,6 C 2,2 C 90 % 1006,4 hPa 0,0 l/m 2 min 0 min 0,0 UV-I 123 W/m 10,3 km/h (2 Bft)
14.02.2014 09:30 3,7 C 2,8 C 90 % 1006,3 hPa 0,0 l/m 0 min 0 min 0,0 UV-I 107 W/m 10,3 km/h (2 Bft)
14.02.2014 09:32 3,7 C 2,8 C 90 % 1006,4 hPa 0,0 l/m 0 min 0 min 0,0 UV-I 102 W/m 12,9 km/h (3 Bft)
14.02.2014 09:34 3,8 C 2,8 C 89 % 1006,4 hPa 0,0 l/m 0 min 0 min 0,0 UV-I 97 W/m 10,3 km/h (2 Bft)
14.02.2014 09:36 3,8 C 2,8 C 89 % 1006,4 hPa 0,0 l/m 0 min 0 min 0,0 UV-I 100 W/m 10,3 km/h (2 Bft)
14.02.2014 09:38 3,8 C 2,8 C 89 % 1006,4 hPa 0,0 l/m 0 min 0 min 0,0 UV-I 104 W/m 7,7 km/h (2 Bft)
14.02.2014 09:40 3,9 C 2,8 C 89 % 1006,4 hPa 0,0 l/m 0 min 0 min 0,0 UV-I 102 W/m 5,1 km/h (1 Bft)
14.02.2014 09:42 3,9 C 2,8 C 88 % 1006,4 hPa 0,0 l/m 0 min 0 min 0,0 UV-I 107 W/m 15,4 km/h (3 Bft)
14.02.2014 09:44 3,9 C 2,8 C 88 % 1006,3 hPa 0,0 l/m 0 min 0 min 0,0 UV-I 114 W/m 12,9 km/h (3 Bft)
14.02.2014 09:46 3,9 C 2,8 C 88 % 1006,3 hPa 0,0 l/m 0 min 0 min 0,0 UV-I 127 W/m 10,3 km/h (2 Bft)
14.02.2014 09:48 4,0 C 2,8 C 88 % 1006,3 hPa 0,0 l/m 2 min 0 min 0,0 UV-I 148 W/m 7,7 km/h (2 Bft)
14.02.2014 09:50 4,1 C 2,8 C 88 % 1006,3 hPa 0,0 l/m 2 min 0 min 0,0 UV-I 162 W/m 2,6 km/h (1 Bft)
14.02.2014 09:52 4,1 C 3,3 C 88 % 1006,3 hPa 0,0 l/m 2 min 0 min 0,0 UV-I 162 W/m 10,3 km/h (2 Bft)
14.02.2014 09:54 4,2 C 3,3 C 88 % 1006,3 hPa 0,0 l/m 0 min 0 min 0,0 UV-I 144 W/m 12,9 km/h (3 Bft)
14.02.2014 09:56 4,2 C 3,3 C 88 % 1006,3 hPa 0,0 l/m 0 min 0 min 0,0 UV-I 141 W/m 10,3 km/h (2 Bft)
14.02.2014 09:58 4,2 C 3,3 C 88 % 1006,3 hPa 0,0 l/m 0 min 0 min 0,0 UV-I 148 W/m 15,4 km/h (3 Bft)
14.02.2014 10:00 4,2 C 3,3 C 87 % 1006,3 hPa 0,0 l/m 2 min 0 min 0,0 UV-I 163 W/m 12,9 km/h (3 Bft)
14.02.2014 10:02 4,3 C 3,3 C 87 % 1006,3 hPa 0,0 l/m 2 min 0 min 0,0 UV-I 174 W/m 10,3 km/h (2 Bft)
14.02.2014 10:04 4,3 C 3,3 C 87 % 1006,3 hPa 0,0 l/m 2 min 0 min 0,0 UV-I 178 W/m 10,3 km/h (2 Bft)
14.02.2014 10:06 4,4 C 3,3 C 87 % 1006,3 hPa 0,0 l/m 2 min 0 min 0,0 UV-I 172 W/m 10,3 km/h (2 Bft)
14.02.2014 10:08 4,5 C 3,3 C 87 % 1006,4 hPa 0,0 l/m 2 min 0 min 0,0 UV-I 183 W/m 10,3 km/h (2 Bft)
14.02.2014 10:10 4,5 C 3,3 C 87 % 1006,5 hPa 0,0 l/m 2 min 0 min 0,0 UV-I 181 W/m 12,9 km/h (3 Bft)
14.02.2014 10:12 4,6 C 3,9 C 87 % 1006,5 hPa 0,0 l/m 2 min 0 min 0,0 UV-I 183 W/m 18,0 km/h (3 Bft)
14.02.2014 10:14 4,6 C 3,9 C 87 % 1006,5 hPa 0,0 l/m 2 min 0 min 0,0 UV-I 204 W/m 15,4 km/h (3 Bft)
14.02.2014 10:16 4,7 C 3,9 C 86 % 1006,4 hPa 0,0 l/m 2 min 0 min 0,0 UV-I 237 W/m 10,3 km/h (2 Bft)
14.02.2014 10:18 4,8 C 3,9 C 86 % 1006,4 hPa 0,0 l/m 2 min 0 min 0,0 UV-I 260 W/m 15,4 km/h (3 Bft)
14.02.2014 10:20 4,9 C 3,9 C 86 % 1006,4 hPa 0,0 l/m 2 min 0 min 0,0 UV-I 281 W/m 12,9 km/h (3 Bft)
14.02.2014 10:22 5,1 C 4,4 C 86 % 1006,4 hPa 0,0 l/m 2 min 0 min 0,0 UV-I 292 W/m 15,4 km/h (3 Bft)
14.02.2014 10:24 5,3 C 4,4 C 86 % 1006,4 hPa 0,0 l/m 2 min 0 min 0,0 UV-I 290 W/m 12,9 km/h (3 Bft)
14.02.2014 10:26 5,4 C 4,4 C 85 % 1006,3 hPa 0,0 l/m 2 min 0 min 0,0 UV-I 285 W/m 12,9 km/h (3 Bft)
14.02.2014 10:28 5,5 C 4,4 C 85 % 1006,4 hPa 0,0 l/m 2 min 0 min 0,0 UV-I 251 W/m 20,6 km/h (4 Bft)
14.02.2014 10:30 5,5 C 4,4 C 84 % 1006,3 hPa 0,0 l/m 2 min 0 min 0,0 UV-I 276 W/m 18,0 km/h (3 Bft)
14.02.2014 10:32 5,7 C 5,0 C 84 % 1006,3 hPa 0,0 l/m 2 min 0 min 0,0 UV-I 253 W/m 18,0 km/h (3 Bft)
14.02.2014 10:34 5,7 C 5,0 C 84 % 1006,2 hPa 0,0 l/m 2 min 0 min 0,0 UV-I 218 W/m 15,4 km/h (3 Bft)
14.02.2014 10:36 5,7 C 5,0 C 84 % 1006,2 hPa 0,0 l/m 2 min 0 min 0,0 UV-I 227 W/m 23,2 km/h (4 Bft)
14.02.2014 10:38 5,8 C 5,0 C 84 % 1006,2 hPa 0,0 l/m 2 min 0 min 0,0 UV-I 255 W/m 18,0 km/h (3 Bft)
14.02.2014 10:40 5,8 C 5,0 C 84 % 1006,2 hPa 0,0 l/m 2 min 0 min 0,0 UV-I 244 W/m 18,0 km/h (3 Bft)
14.02.2014 10:42 5,8 C 5,0 C 83 % 1006,1 hPa 0,0 l/m 2 min 0 min 0,0 UV-I 241 W/m 20,6 km/h (4 Bft)
14.02.2014 10:44 5,8 C 5,0 C 83 % 1006,1 hPa 0,0 l/m 2 min 0 min 0,0 UV-I 237 W/m 20,6 km/h (4 Bft)
14.02.2014 10:46 5,8 C 5,0 C 83 % 1006,1 hPa 0,0 l/m 2 min 0 min 0,0 UV-I 257 W/m 15,4 km/h (3 Bft)
14.02.2014 10:48 5,9 C 5,0 C 83 % 1006,1 hPa 0,0 l/m 2 min 0 min 0,0 UV-I 264 W/m 18,0 km/h (3 Bft)
14.02.2014 10:50 6,0 C 5,0 C 83 % 1006,0 hPa 0,0 l/m 2 min 0 min 0,0 UV-I 258 W/m 20,6 km/h (4 Bft)
14.02.2014 10:52 6,1 C 5,0 C 82 % 1006,0 hPa 0,0 l/m 2 min 0 min 0,0 UV-I 262 W/m 25,7 km/h (4 Bft)
14.02.2014 10:54 6,1 C 5,0 C 82 % 1006,0 hPa 0,0 l/m 2 min 0 min 0,0 UV-I 248 W/m 25,7 km/h (4 Bft)
14.02.2014 10:56 6,1 C 5,0 C 81 % 1006,0 hPa 0,0 l/m 2 min 0 min 0,0 UV-I 225 W/m 23,2 km/h (4 Bft)
14.02.2014 10:58 6,2 C 5,0 C 81 % 1006,1 hPa 0,0 l/m 2 min 0 min 0,0 UV-I 230 W/m 30,9 km/h (5 Bft)
14.02.2014 11:00 6,2 C 5,0 C 81 % 1006,1 hPa 0,0 l/m 2 min 0 min 0,0 UV-I 234 W/m 15,4 km/h (3 Bft)
14.02.2014 11:02 6,2 C 5,0 C 81 % 1006,0 hPa 0,0 l/m 2 min 0 min 0,0 UV-I 230 W/m 18,0 km/h (3 Bft)
14.02.2014 11:04 6,2 C 5,0 C 81 % 1006,1 hPa 0,0 l/m 2 min 0 min 0,0 UV-I 257 W/m 30,9 km/h (5 Bft)
14.02.2014 11:06 6,3 C 5,0 C 81 % 1006,0 hPa 0,0 l/m 2 min 0 min 0,0 UV-I 281 W/m 18,0 km/h (3 Bft)
14.02.2014 11:08 6,4 C 5,0 C 81 % 1006,0 hPa 0,0 l/m 2 min 0 min 0,0 UV-I 295 W/m 20,6 km/h (4 Bft)
14.02.2014 11:10 6,4 C 5,0 C 81 % 1006,0 hPa 0,0 l/m 2 min 0 min 0,0 UV-I 318 W/m 18,0 km/h (3 Bft)
14.02.2014 11:12 6,6 C 5,0 C 81 % 1006,0 hPa 0,0 l/m 2 min 0 min 0,0 UV-I 322 W/m 23,2 km/h (4 Bft)
14.02.2014 11:14 6,7 C 5,0 C 80 % 1006,1 hPa 0,0 l/m 2 min 0 min 0,0 UV-I 323 W/m 18,0 km/h (3 Bft)
14.02.2014 11:16 6,8 C 5,0 C 80 % 1006,2 hPa 0,0 l/m 2 min 0 min 0,0 UV-I 294 W/m 20,6 km/h (4 Bft)
14.02.2014 11:18 6,9 C 5,0 C 79 % 1006,2 hPa 0,0 l/m 2 min 0 min 0,0 UV-I 258 W/m 20,6 km/h (4 Bft)
14.02.2014 11:20 6,9 C 5,0 C 79 % 1006,1 hPa 0,0 l/m 0 min 0 min 0,0 UV-I 195 W/m 25,7 km/h (4 Bft)
14.02.2014 11:22 6,8 C 5,0 C 78 % 1006,1 hPa 0,0 l/m 0 min 0 min 0,0 UV-I 202 W/m 18,0 km/h (3 Bft)
14.02.2014 11:24 6,8 C 5,6 C 79 % 1006,2 hPa 0,0 l/m 0 min 0 min 0,0 UV-I 211 W/m 25,7 km/h (4 Bft)
14.02.2014 11:26 6,8 C 5,6 C 78 % 1006,3 hPa 0,0 l/m 0 min 0 min 0,0 UV-I 209 W/m 10,3 km/h (2 Bft)
14.02.2014 11:28 6,8 C 5,6 C 79 % 1006,3 hPa 0,0 l/m 0 min 0 min 0,0 UV-I 200 W/m 15,4 km/h (3 Bft)
14.02.2014 11:30 6,8 C 5,6 C 79 % 1006,3 hPa 0,0 l/m 0 min 0 min 0,0 UV-I 199 W/m 18,0 km/h (3 Bft)
14.02.2014 11:32 6,8 C 6,1 C 79 % 1006,3 hPa 0,0 l/m 0 min 0 min 0,0 UV-I 202 W/m 12,9 km/h (3 Bft)
14.02.2014 11:34 6,8 C 6,1 C 79 % 1006,4 hPa 0,0 l/m 0 min 0 min 0,0 UV-I 195 W/m 10,3 km/h (2 Bft)
14.02.2014 11:36 6,8 C 6,1 C 79 % 1006,3 hPa 0,0 l/m 0 min 0 min 0,0 UV-I 192 W/m 15,4 km/h (3 Bft)
14.02.2014 11:38 6,8 C 6,1 C 79 % 1006,4 hPa 0,0 l/m 0 min 0 min 0,0 UV-I 188 W/m 2,6 km/h (1 Bft)
14.02.2014 11:40 6,8 C 6,1 C 78 % 1006,3 hPa 0,0 l/m 0 min 0 min 0,0 UV-I 190 W/m 28,3 km/h (4 Bft)
14.02.2014 11:42 6,8 C 6,1 C 78 % 1006,3 hPa 0,0 l/m 0 min 0 min 0,0 UV-I 190 W/m 20,6 km/h (4 Bft)
14.02.2014 11:44 6,8 C 6,1 C 78 % 1006,2 hPa 0,0 l/m 0 min 0 min 0,0 UV-I 190 W/m 18,0 km/h (3 Bft)
14.02.2014 11:46 6,8 C 6,1 C 78 % 1006,2 hPa 0,0 l/m 0 min 0 min 0,0 UV-I 190 W/m 23,2 km/h (4 Bft)
14.02.2014 11:48 6,8 C 6,1 C 78 % 1006,2 hPa 0,0 l/m 0 min 0 min 0,0 UV-I 193 W/m 20,6 km/h (4 Bft)
14.02.2014 11:50 6,8 C 6,7 C 78 % 1006,2 hPa 0,0 l/m 0 min 0 min 0,0 UV-I 197 W/m 18,0 km/h (3 Bft)
14.02.2014 11:52 6,8 C 6,7 C 79 % 1006,2 hPa 0,0 l/m 0 min 0 min 0,0 UV-I 202 W/m 12,9 km/h (3 Bft)
14.02.2014 11:54 6,8 C 6,7 C 79 % 1006,1 hPa 0,0 l/m 0 min 0 min 0,0 UV-I 200 W/m 15,4 km/h (3 Bft)
14.02.2014 11:56 6,8 C 6,7 C 78 % 1006,2 hPa 0,0 l/m 0 min 0 min 0,0 UV-I 197 W/m 18,0 km/h (3 Bft)
14.02.2014 11:58 6,8 C 6,7 C 78 % 1006,1 hPa 0,0 l/m 0 min 0 min 0,0 UV-I 199 W/m 20,6 km/h (4 Bft)
14.02.2014 12:00 6,8 C 6,7 C 78 % 1006,1 hPa 0,0 l/m 0 min 0 min 0,0 UV-I 200 W/m 18,0 km/h (3 Bft)
14.02.2014 12:02 6,9 C 6,7 C 78 % 1006,0 hPa 0,0 l/m 0 min 0 min 0,0 UV-I 204 W/m 25,7 km/h (4 Bft)
14.02.2014 12:04 6,9 C 6,7 C 78 % 1006,1 hPa 0,0 l/m 0 min 0 min 0,0 UV-I 216 W/m 23,2 km/h (4 Bft)
14.02.2014 12:06 6,8 C 6,7 C 77 % 1005,9 hPa 0,0 l/m 0 min 0 min 0,0 UV-I 223 W/m 25,7 km/h (4 Bft)
14.02.2014 12:08 6,8 C 6,7 C 78 % 1005,9 hPa 0,0 l/m 0 min 0 min 0,0 UV-I 234 W/m 18,0 km/h (3 Bft)
14.02.2014 12:10 6,9 C 6,7 C 78 % 1005,7 hPa 0,0 l/m 2 min 0 min 0,0 UV-I 250 W/m 18,0 km/h (3 Bft)
14.02.2014 12:12 7,0 C 7,2 C 78 % 1005,8 hPa 0,0 l/m 2 min 0 min 0,0 UV-I 269 W/m 12,9 km/h (3 Bft)
14.02.2014 12:14 7,1 C 7,2 C 78 % 1005,7 hPa 0,0 l/m 2 min 0 min 0,0 UV-I 283 W/m 23,2 km/h (4 Bft)
14.02.2014 12:16 7,2 C 7,2 C 78 % 1005,6 hPa 0,0 l/m 2 min 0 min 0,0 UV-I 285 W/m 18,0 km/h (3 Bft)
14.02.2014 12:18 7,3 C 7,2 C 78 % 1005,5 hPa 0,0 l/m 2 min 0 min 0,0 UV-I 281 W/m 18,0 km/h (3 Bft)
14.02.2014 12:20 7,3 C 7,2 C 77 % 1005,5 hPa 0,0 l/m 2 min 0 min 0,0 UV-I 276 W/m 23,2 km/h (4 Bft)
14.02.2014 12:22 7,4 C 7,2 C 77 % 1005,4 hPa 0,0 l/m 2 min 0 min 0,0 UV-I 274 W/m 25,7 km/h (4 Bft)
14.02.2014 12:24 7,4 C 7,2 C 77 % 1005,4 hPa 0,0 l/m 2 min 0 min 0,0 UV-I 260 W/m 18,0 km/h (3 Bft)
14.02.2014 12:26 7,5 C 7,2 C 76 % 1005,3 hPa 0,0 l/m 0 min 0 min 0,0 UV-I 236 W/m 18,0 km/h (3 Bft)
14.02.2014 12:28 7,4 C 7,2 C 76 % 1005,2 hPa 0,0 l/m 0 min 0 min 0,0 UV-I 220 W/m 30,9 km/h (5 Bft)
14.02.2014 12:30 7,4 C 7,2 C 76 % 1005,2 hPa 0,0 l/m 0 min 0 min 0,0 UV-I 202 W/m 20,6 km/h (4 Bft)
14.02.2014 12:32 7,4 C 7,2 C 76 % 1005,2 hPa 0,0 l/m 0 min 0 min 0,0 UV-I 183 W/m 20,6 km/h (4 Bft)
14.02.2014 12:34 7,3 C 6,7 C 76 % 1005,2 hPa 0,0 l/m 0 min 0 min 0,0 UV-I 172 W/m 28,3 km/h (4 Bft)
14.02.2014 12:36 7,3 C 6,7 C 76 % 1005,1 hPa 0,0 l/m 0 min 0 min 0,0 UV-I 162 W/m 25,7 km/h (4 Bft)
14.02.2014 12:38 7,3 C 6,7 C 76 % 1005,1 hPa 0,0 l/m 0 min 0 min 0,0 UV-I 153 W/m 18,0 km/h (3 Bft)
14.02.2014 12:40 7,3 C 6,7 C 76 % 1005,1 hPa 0,0 l/m 0 min 0 min 0,0 UV-I 151 W/m 18,0 km/h (3 Bft)
14.02.2014 12:42 7,3 C 6,7 C 76 % 1005,1 hPa 0,0 l/m 0 min 0 min 0,0 UV-I 151 W/m 20,6 km/h (4 Bft)
14.02.2014 12:44 7,3 C 6,7 C 77 % 1005,1 hPa 0,0 l/m 0 min 0 min 0,0 UV-I 151 W/m 30,9 km/h (5 Bft)
14.02.2014 12:46 7,2 C 6,7 C 76 % 1005,0 hPa 0,0 l/m 0 min 0 min 0,0 UV-I 155 W/m 20,6 km/h (4 Bft)
14.02.2014 12:48 7,2 C 6,7 C 76 % 1004,9 hPa 0,0 l/m 0 min 0 min 0,0 UV-I 162 W/m 20,6 km/h (4 Bft)
14.02.2014 12:50 7,2 C 6,7 C 76 % 1004,9 hPa 0,0 l/m 0 min 0 min 0,0 UV-I 167 W/m 18,0 km/h (3 Bft)
14.02.2014 12:52 7,3 C 6,7 C 76 % 1004,8 hPa 0,0 l/m 0 min 0 min 0,0 UV-I 169 W/m 18,0 km/h (3 Bft)
14.02.2014 12:54 7,3 C 6,7 C 76 % 1004,8 hPa 0,0 l/m 0 min 0 min 0,0 UV-I 165 W/m 23,2 km/h (4 Bft)
14.02.2014 12:56 7,3 C 6,7 C 76 % 1004,8 hPa 0,0 l/m 0 min 0 min 0,0 UV-I 162 W/m 23,2 km/h (4 Bft)
14.02.2014 12:58 7,3 C 6,7 C 76 % 1004,7 hPa 0,0 l/m 0 min 0 min 0,0 UV-I 162 W/m 30,9 km/h (5 Bft)
14.02.2014 13:00 7,3 C 6,7 C 76 % 1004,8 hPa 0,0 l/m 0 min 0 min 0,0 UV-I 165 W/m 20,6 km/h (4 Bft)
14.02.2014 13:02 7,3 C 6,7 C 75 % 1004,8 hPa 0,0 l/m 0 min 0 min 0,0 UV-I 171 W/m 28,3 km/h (4 Bft)
14.02.2014 13:04 7,3 C 6,7 C 76 % 1004,7 hPa 0,0 l/m 0 min 0 min 0,0 UV-I 174 W/m 25,7 km/h (4 Bft)
14.02.2014 13:06 7,3 C 6,7 C 75 % 1004,7 hPa 0,0 l/m 0 min 0 min 0,0 UV-I 181 W/m 20,6 km/h (4 Bft)
14.02.2014 13:08 7,4 C 7,2 C 75 % 1004,6 hPa 0,0 l/m 0 min 0 min 0,0 UV-I 190 W/m 20,6 km/h (4 Bft)
14.02.2014 13:10 7,4 C 7,2 C 75 % 1004,6 hPa 0,0 l/m 0 min 0 min 0,0 UV-I 192 W/m 25,7 km/h (4 Bft)
14.02.2014 13:12 7,5 C 7,2 C 76 % 1004,7 hPa 0,0 l/m 0 min 0 min 0,0 UV-I 193 W/m 12,9 km/h (3 Bft)
14.02.2014 13:14 7,6 C 7,2 C 77 % 1004,5 hPa 0,0 l/m 0 min 0 min 0,0 UV-I 199 W/m 15,4 km/h (3 Bft)
14.02.2014 13:16 7,7 C 7,2 C 76 % 1004,4 hPa 0,0 l/m 0 min 0 min 0,0 UV-I 206 W/m 25,7 km/h (4 Bft)
14.02.2014 13:18 7,7 C 7,2 C 76 % 1004,3 hPa 0,0 l/m 0 min 0 min 0,0 UV-I 216 W/m 18,0 km/h (3 Bft)
14.02.2014 13:20 7,7 C 7,2 C 77 % 1004,3 hPa 0,0 l/m 0 min 0 min 0,0 UV-I 213 W/m 10,3 km/h (2 Bft)
14.02.2014 13:22 7,8 C 7,2 C 77 % 1004,2 hPa 0,0 l/m 0 min 0 min 0,0 UV-I 220 W/m 25,7 km/h (4 Bft)
14.02.2014 13:24 7,8 C 7,8 C 77 % 1004,2 hPa 0,0 l/m 0 min 0 min 0,0 UV-I 218 W/m 23,2 km/h (4 Bft)
14.02.2014 13:26 7,8 C 7,2 C 77 % 1004,1 hPa 0,0 l/m 0 min 0 min 0,0 UV-I 225 W/m 20,6 km/h (4 Bft)
14.02.2014 13:28 7,8 C 7,2 C 77 % 1004,1 hPa 0,0 l/m 2 min 0 min 0,0 UV-I 241 W/m 23,2 km/h (4 Bft)
14.02.2014 13:30 7,8 C 7,2 C 77 % 1004,1 hPa 0,0 l/m 2 min 0 min 0,0 UV-I 297 W/m 25,7 km/h (4 Bft)
14.02.2014 13:32 7,8 C 7,8 C 78 % 1004,0 hPa 0,0 l/m 2 min 0 min 0,0 UV-I 299 W/m 30,9 km/h (5 Bft)
14.02.2014 13:34 7,9 C 7,8 C 77 % 1003,9 hPa 0,0 l/m 2 min 0 min 0,0 UV-I 306 W/m 33,5 km/h (5 Bft)
14.02.2014 13:36 7,9 C 7,8 C 77 % 1003,9 hPa 0,0 l/m 2 min 0 min 0,0 UV-I 267 W/m 25,7 km/h (4 Bft)
14.02.2014 13:38 8,0 C 7,8 C 77 % 1003,9 hPa 0,0 l/m 2 min 0 min 0,0 UV-I 246 W/m 18,0 km/h (3 Bft)
14.02.2014 13:40 8,1 C 7,8 C 76 % 1003,9 hPa 0,0 l/m 0 min 0 min 0,0 UV-I 234 W/m 30,9 km/h (5 Bft)
14.02.2014 13:42 8,0 C 7,2 C 76 % 1003,8 hPa 0,0 l/m 0 min 0 min 0,0 UV-I 230 W/m 33,5 km/h (5 Bft)
14.02.2014 13:44 8,0 C 7,2 C 75 % 1003,7 hPa 0,0 l/m 0 min 0 min 0,0 UV-I 230 W/m 46,3 km/h (6 Bft)
14.02.2014 13:46 7,9 C 7,2 C 75 % 1003,7 hPa 0,0 l/m 2 min 0 min 0,0 UV-I 246 W/m 41,2 km/h (6 Bft)
14.02.2014 13:48 7,9 C 7,2 C 75 % 1003,7 hPa 0,0 l/m 2 min 0 min 0,0 UV-I 255 W/m 33,5 km/h (5 Bft)
14.02.2014 13:50 7,9 C 7,2 C 76 % 1003,8 hPa 0,0 l/m 0 min 0 min 0,0 UV-I 225 W/m 38,6 km/h (5 Bft)
14.02.2014 13:52 7,9 C 7,2 C 76 % 1003,6 hPa 0,0 l/m 0 min 0 min 0,0 UV-I 218 W/m 41,2 km/h (6 Bft)
14.02.2014 13:54 7,8 C 7,2 C 76 % 1003,6 hPa 0,0 l/m 0 min 0 min 0,0 UV-I 214 W/m 20,6 km/h (4 Bft)
14.02.2014 13:56 7,8 C 7,2 C 77 % 1003,5 hPa 0,0 l/m 0 min 0 min 0,0 UV-I 223 W/m 30,9 km/h (5 Bft)
14.02.2014 13:58 7,8 C 7,2 C 76 % 1003,5 hPa 0,0 l/m 2 min 0 min 0,0 UV-I 230 W/m 38,6 km/h (5 Bft)
14.02.2014 14:00 7,8 C 7,2 C 76 % 1003,5 hPa 0,0 l/m 0 min 0 min 0,0 UV-I 213 W/m 36,0 km/h (5 Bft)
14.02.2014 14:02 7,9 C 7,2 C 76 % 1003,4 hPa 0,0 l/m 0 min 0 min 0,0 UV-I 209 W/m 25,7 km/h (4 Bft)
14.02.2014 14:04 7,9 C 7,2 C 77 % 1003,3 hPa 0,0 l/m 0 min 0 min 0,0 UV-I 202 W/m 23,2 km/h (4 Bft)
14.02.2014 14:06 7,9 C 7,2 C 76 % 1003,3 hPa 0,0 l/m 0 min 0 min 0,0 UV-I 186 W/m 46,3 km/h (6 Bft)
14.02.2014 14:08 7,8 C 7,2 C 77 % 1003,3 hPa 0,0 l/m 0 min 0 min 0,0 UV-I 172 W/m 33,5 km/h (5 Bft)
14.02.2014 14:10 7,8 C 7,2 C 76 % 1003,3 hPa 0,0 l/m 0 min 0 min 0,0 UV-I 172 W/m 30,9 km/h (5 Bft)
14.02.2014 14:12 7,8 C 7,2 C 76 % 1003,4 hPa 0,0 l/m 0 min 0 min 0,0 UV-I 167 W/m 30,9 km/h (5 Bft)
14.02.2014 14:14 7,8 C 7,2 C 77 % 1003,4 hPa 0,0 l/m 0 min 0 min 0,0 UV-I 158 W/m 23,2 km/h (4 Bft)
14.02.2014 14:16 7,8 C 7,2 C 77 % 1003,4 hPa 0,0 l/m 0 min 0 min 0,0 UV-I 149 W/m 20,6 km/h (4 Bft)
14.02.2014 14:18 7,8 C 7,2 C 77 % 1003,5 hPa 0,0 l/m 0 min 0 min 0,0 UV-I 135 W/m 25,7 km/h (4 Bft)
14.02.2014 14:20 7,7 C 7,2 C 77 % 1003,3 hPa 0,0 l/m 0 min 0 min 0,0 UV-I 125 W/m 30,9 km/h (5 Bft)
14.02.2014 14:22 7,7 C 6,7 C 77 % 1003,4 hPa 0,0 l/m 0 min 0 min 0,0 UV-I 114 W/m 30,9 km/h (5 Bft)
14.02.2014 14:24 7,7 C 6,7 C 77 % 1003,3 hPa 0,0 l/m 0 min 0 min 0,0 UV-I 100 W/m 28,3 km/h (4 Bft)
14.02.2014 14:26 7,6 C 6,7 C 77 % 1003,4 hPa 0,0 l/m 0 min 0 min 0,0 UV-I 100 W/m 23,2 km/h (4 Bft)
14.02.2014 14:28 7,6 C 6,7 C 77 % 1003,4 hPa 0,0 l/m 0 min 0 min 0,0 UV-I 98 W/m 23,2 km/h (4 Bft)
14.02.2014 14:30 7,5 C 6,7 C 77 % 1003,3 hPa 0,0 l/m 0 min 0 min 0,0 UV-I 93 W/m 25,7 km/h (4 Bft)
14.02.2014 14:32 7,5 C 6,7 C 78 % 1003,3 hPa 0,0 l/m 0 min 0 min 0,0 UV-I 93 W/m 23,2 km/h (4 Bft)
14.02.2014 14:34 7,4 C 6,7 C 78 % 1003,3 hPa 0,0 l/m 0 min 0 min 0,0 UV-I 95 W/m 30,9 km/h (5 Bft)
14.02.2014 14:36 7,5 C 6,7 C 78 % 1003,2 hPa 0,0 l/m 0 min 0 min 0,0 UV-I 98 W/m 30,9 km/h (5 Bft)
14.02.2014 14:38 7,4 C 6,7 C 78 % 1003,1 hPa 0,0 l/m 0 min 0 min 0,0 UV-I 98 W/m 23,2 km/h (4 Bft)
14.02.2014 14:40 7,4 C 6,7 C 78 % 1003,1 hPa 0,0 l/m 0 min 0 min 0,0 UV-I 98 W/m 28,3 km/h (4 Bft)
14.02.2014 14:42 7,4 C 6,7 C 78 % 1002,9 hPa 0,0 l/m 0 min 0 min 0,0 UV-I 97 W/m 18,0 km/h (3 Bft)
14.02.2014 14:44 7,4 C 6,7 C 79 % 1002,9 hPa 0,0 l/m 0 min 0 min 0,0 UV-I 97 W/m 20,6 km/h (4 Bft)
14.02.2014 14:46 7,4 C 6,7 C 79 % 1003,0 hPa 0,0 l/m 0 min 0 min 0,0 UV-I 97 W/m 18,0 km/h (3 Bft)
14.02.2014 14:48 7,4 C 6,7 C 79 % 1003,0 hPa 0,0 l/m 0 min 0 min 0,0 UV-I 102 W/m 20,6 km/h (4 Bft)
14.02.2014 14:50 7,4 C 6,7 C 78 % 1002,9 hPa 0,0 l/m 0 min 0 min 0,0 UV-I 107 W/m 28,3 km/h (4 Bft)
14.02.2014 14:52 7,5 C 6,7 C 78 % 1002,9 hPa 0,0 l/m 0 min 0 min 0,0 UV-I 113 W/m 33,5 km/h (5 Bft)
14.02.2014 14:54 7,5 C 6,7 C 78 % 1003,0 hPa 0,0 l/m 0 min 0 min 0,0 UV-I 116 W/m 30,9 km/h (5 Bft)
14.02.2014 14:56 7,5 C 6,7 C 78 % 1002,9 hPa 0,0 l/m 0 min 0 min 0,0 UV-I 120 W/m 38,6 km/h (5 Bft)
14.02.2014 14:58 7,5 C 6,7 C 78 % 1002,8 hPa 0,0 l/m 0 min 0 min 0,0 UV-I 134 W/m 25,7 km/h (4 Bft)
14.02.2014 15:00 7,6 C 6,7 C 78 % 1002,8 hPa 0,0 l/m 0 min 0 min 0,0 UV-I 139 W/m 30,9 km/h (5 Bft)
14.02.2014 15:02 7,6 C 7,2 C 78 % 1002,8 hPa 0,0 l/m 0 min 0 min 0,0 UV-I 144 W/m 25,7 km/h (4 Bft)
14.02.2014 15:04 7,6 C 7,2 C 78 % 1002,8 hPa 0,0 l/m 0 min 0 min 0,0 UV-I 146 W/m 23,2 km/h (4 Bft)
14.02.2014 15:06 7,7 C 7,2 C 78 % 1002,7 hPa 0,0 l/m 0 min 0 min 0,0 UV-I 149 W/m 28,3 km/h (4 Bft)
14.02.2014 15:08 7,7 C 7,2 C 77 % 1002,7 hPa 0,0 l/m 0 min 0 min 0,0 UV-I 142 W/m 18,0 km/h (3 Bft)
14.02.2014 15:10 7,7 C 7,2 C 77 % 1002,7 hPa 0,0 l/m 0 min 0 min 0,0 UV-I 137 W/m 28,3 km/h (4 Bft)
14.02.2014 15:12 7,8 C 7,2 C 77 % 1002,7 hPa 0,0 l/m 0 min 0 min 0,0 UV-I 134 W/m 20,6 km/h (4 Bft)
14.02.2014 15:14 7,8 C 7,2 C 77 % 1002,6 hPa 0,0 l/m 0 min 0 min 0,0 UV-I 130 W/m 20,6 km/h (4 Bft)
14.02.2014 15:16 7,8 C 7,2 C 77 % 1002,6 hPa 0,0 l/m 0 min 0 min 0,0 UV-I 114 W/m 18,0 km/h (3 Bft)
14.02.2014 15:18 7,8 C 7,2 C 78 % 1002,6 hPa 0,0 l/m 0 min 0 min 0,0 UV-I 100 W/m 30,9 km/h (5 Bft)
14.02.2014 15:20 7,8 C 7,2 C 77 % 1002,6 hPa 0,0 l/m 0 min 0 min 0,0 UV-I 93 W/m 20,6 km/h (4 Bft)
14.02.2014 15:22 7,8 C 7,2 C 77 % 1002,5 hPa 0,0 l/m 0 min 0 min 0,0 UV-I 97 W/m 25,7 km/h (4 Bft)
14.02.2014 15:24 7,8 C 6,7 C 77 % 1002,5 hPa 0,0 l/m 0 min 0 min 0,0 UV-I 93 W/m 28,3 km/h (4 Bft)
14.02.2014 15:26 7,7 C 6,7 C 77 % 1002,4 hPa 0,0 l/m 0 min 0 min 0,0 UV-I 86 W/m 18,0 km/h (3 Bft)
14.02.2014 15:28 7,7 C 6,7 C 77 % 1002,5 hPa 0,0 l/m 0 min 0 min 0,0 UV-I 72 W/m 23,2 km/h (4 Bft)
14.02.2014 15:30 7,7 C 6,7 C 78 % 1002,5 hPa 0,0 l/m 0 min 0 min 0,0 UV-I 65 W/m 20,6 km/h (4 Bft)
14.02.2014 15:32 7,7 C 6,7 C 77 % 1002,5 hPa 0,0 l/m 0 min 0 min 0,0 UV-I 62 W/m 28,3 km/h (4 Bft)
14.02.2014 15:34 7,7 C 6,7 C 77 % 1002,4 hPa 0,0 l/m 0 min 0 min 0,0 UV-I 62 W/m 15,4 km/h (3 Bft)
14.02.2014 15:36 7,7 C 6,7 C 78 % 1002,4 hPa 0,0 l/m 0 min 2 min 0,0 UV-I 60 W/m 20,6 km/h (4 Bft)
14.02.2014 15:38 7,7 C 6,7 C 78 % 1002,3 hPa 0,0 l/m 0 min 2 min 0,0 UV-I 58 W/m 23,2 km/h (4 Bft)
14.02.2014 15:40 7,6 C 6,1 C 78 % 1002,4 hPa 0,0 l/m 0 min 2 min 0,0 UV-I 49 W/m 36,0 km/h (5 Bft)
14.02.2014 15:42 7,6 C 6,1 C 79 % 1002,4 hPa 0,0 l/m 0 min 2 min 0,0 UV-I 44 W/m 20,6 km/h (4 Bft)
14.02.2014 15:44 7,6 C 6,1 C 79 % 1002,3 hPa 0,0 l/m 0 min 2 min 0,0 UV-I 40 W/m 30,9 km/h (5 Bft)
14.02.2014 15:46 7,5 C 6,1 C 79 % 1002,3 hPa 0,0 l/m 0 min 2 min 0,0 UV-I 35 W/m 28,3 km/h (4 Bft)
14.02.2014 15:48 7,4 C 5,6 C 80 % 1002,2 hPa 0,0 l/m 0 min 2 min 0,0 UV-I 33 W/m 36,0 km/h (5 Bft)
14.02.2014 15:50 7,4 C 5,6 C 81 % 1002,1 hPa 0,0 l/m 0 min 2 min 0,0 UV-I 35 W/m 36,0 km/h (5 Bft)
14.02.2014 15:52 7,3 C 5,6 C 81 % 1002,1 hPa 0,0 l/m 0 min 2 min 0,0 UV-I 37 W/m 25,7 km/h (4 Bft)
14.02.2014 15:54 7,3 C 5,6 C 81 % 1002,0 hPa 0,0 l/m 0 min 2 min 0,0 UV-I 37 W/m 25,7 km/h (4 Bft)
14.02.2014 15:56 7,2 C 5,6 C 82 % 1002,0 hPa 0,0 l/m 0 min 2 min 0,0 UV-I 37 W/m 28,3 km/h (4 Bft)
14.02.2014 15:58 7,2 C 5,0 C 82 % 1001,9 hPa 0,0 l/m 0 min 2 min 0,0 UV-I 39 W/m 20,6 km/h (4 Bft)
14.02.2014 16:00 7,2 C 5,0 C 82 % 1001,9 hPa 0,0 l/m 0 min 2 min 0,0 UV-I 37 W/m 20,6 km/h (4 Bft)
14.02.2014 16:02 7,2 C 5,0 C 82 % 1001,8 hPa 0,0 l/m 0 min 2 min 0,0 UV-I 37 W/m 43,8 km/h (6 Bft)
14.02.2014 16:04 7,1 C 5,0 C 83 % 1001,7 hPa 0,0 l/m 0 min 2 min 0,0 UV-I 35 W/m 28,3 km/h (4 Bft)
14.02.2014 16:06 7,1 C 5,0 C 83 % 1001,6 hPa 0,0 l/m 0 min 2 min 0,0 UV-I 28 W/m 23,2 km/h (4 Bft)
14.02.2014 16:08 7,1 C 5,0 C 83 % 1001,6 hPa 0,0 l/m 0 min 2 min 0,0 UV-I 26 W/m 20,6 km/h (4 Bft)
14.02.2014 16:10 7,1 C 5,0 C 83 % 1001,5 hPa 0,0 l/m 0 min 2 min 0,0 UV-I 25 W/m 18,0 km/h (3 Bft)
14.02.2014 16:12 7,0 C 4,4 C 83 % 1001,4 hPa 0,0 l/m 0 min 2 min 0,0 UV-I 21 W/m 33,5 km/h (5 Bft)
14.02.2014 16:14 6,9 C 4,4 C 84 % 1001,4 hPa 0,0 l/m 0 min 2 min 0,0 UV-I 18 W/m 36,0 km/h (5 Bft)
14.02.2014 16:16 6,9 C 4,4 C 84 % 1001,3 hPa 0,2 l/m 0 min 2 min 0,0 UV-I 18 W/m 36,0 km/h (5 Bft)
14.02.2014 16:18 6,8 C 4,4 C 85 % 1001,2 hPa 0,0 l/m 0 min 2 min 0,0 UV-I 18 W/m 36,0 km/h (5 Bft)
14.02.2014 16:20 6,7 C 4,4 C 85 % 1001,2 hPa 0,0 l/m 0 min 2 min 0,0 UV-I 16 W/m 30,9 km/h (5 Bft)
14.02.2014 16:22 6,6 C 4,4 C 86 % 1001,2 hPa 0,0 l/m 0 min 2 min 0,0 UV-I 18 W/m 30,9 km/h (5 Bft)
14.02.2014 16:24 6,5 C 4,4 C 86 % 1001,0 hPa 0,0 l/m 0 min 2 min 0,0 UV-I 18 W/m 15,4 km/h (3 Bft)
14.02.2014 16:26 6,4 C 4,4 C 87 % 1000,9 hPa 0,0 l/m 0 min 2 min 0,0 UV-I 16 W/m 25,7 km/h (4 Bft)
14.02.2014 16:28 6,4 C 4,4 C 87 % 1000,8 hPa 0,0 l/m 0 min 2 min 0,0 UV-I 14 W/m 43,8 km/h (6 Bft)
14.02.2014 16:30 6,3 C 3,9 C 87 % 1000,8 hPa 0,0 l/m 0 min 2 min 0,0 UV-I 12 W/m 25,7 km/h (4 Bft)
14.02.2014 16:32 6,3 C 3,9 C 88 % 1000,8 hPa 0,2 l/m 0 min 2 min 0,0 UV-I 12 W/m 25,7 km/h (4 Bft)
14.02.2014 16:34 6,2 C 3,9 C 88 % 1000,8 hPa 0,0 l/m 0 min 2 min 0,0 UV-I 12 W/m 23,2 km/h (4 Bft)
14.02.2014 16:36 6,2 C 3,9 C 88 % 1000,7 hPa 0,0 l/m 0 min 2 min 0,0 UV-I 11 W/m 23,2 km/h (4 Bft)
14.02.2014 16:38 6,1 C 3,9 C 88 % 1000,6 hPa 0,0 l/m 0 min 2 min 0,0 UV-I 11 W/m 23,2 km/h (4 Bft)
14.02.2014 16:40 6,1 C 3,9 C 89 % 1000,5 hPa 0,0 l/m 0 min 2 min 0,0 UV-I 11 W/m 25,7 km/h (4 Bft)
14.02.2014 16:42 6,1 C 3,9 C 89 % 1000,4 hPa 0,2 l/m 0 min 2 min 0,0 UV-I 11 W/m 20,6 km/h (4 Bft)
14.02.2014 16:44 6,0 C 3,9 C 89 % 1000,4 hPa 0,0 l/m 0 min 2 min 0,0 UV-I 11 W/m 28,3 km/h (4 Bft)
14.02.2014 16:46 5,9 C 3,9 C 89 % 1000,3 hPa 0,0 l/m 0 min 2 min 0,0 UV-I 11 W/m 33,5 km/h (5 Bft)
14.02.2014 16:48 5,9 C 3,9 C 90 % 1000,1 hPa 0,0 l/m 0 min 2 min 0,0 UV-I 11 W/m 36,0 km/h (5 Bft)
14.02.2014 16:50 5,9 C 3,9 C 90 % 999,9 hPa 0,2 l/m 0 min 2 min 0,0 UV-I 9 W/m 23,2 km/h (4 Bft)
14.02.2014 16:52 5,9 C 3,9 C 90 % 999,8 hPa 0,0 l/m 0 min 2 min 0,0 UV-I 9 W/m 28,3 km/h (4 Bft)
14.02.2014 16:54 5,8 C 3,9 C 90 % 999,6 hPa 0,0 l/m 0 min 2 min 0,0 UV-I 9 W/m 18,0 km/h (3 Bft)
14.02.2014 16:56 5,8 C 3,9 C 91 % 999,7 hPa 0,2 l/m 0 min 2 min 0,0 UV-I 9 W/m 38,6 km/h (5 Bft)
14.02.2014 16:58 5,8 C 3,9 C 91 % 999,6 hPa 0,0 l/m 0 min 2 min 0,0 UV-I 9 W/m 23,2 km/h (4 Bft)
14.02.2014 17:00 5,8 C 3,9 C 91 % 999,4 hPa 0,0 l/m 0 min 2 min 0,0 UV-I 9 W/m 12,9 km/h (3 Bft)
14.02.2014 17:02 5,8 C 3,9 C 91 % 999,4 hPa 0,2 l/m 0 min 2 min 0,0 UV-I 11 W/m 20,6 km/h (4 Bft)
14.02.2014 17:04 5,7 C 3,9 C 91 % 999,3 hPa 0,0 l/m 0 min 2 min 0,0 UV-I 11 W/m 36,0 km/h (5 Bft)
14.02.2014 17:06 5,7 C 3,9 C 92 % 999,3 hPa 0,0 l/m 0 min 2 min 0,0 UV-I 9 W/m 23,2 km/h (4 Bft)
14.02.2014 17:08 5,7 C 3,9 C 92 % 999,2 hPa 0,0 l/m 0 min 2 min 0,0 UV-I 9 W/m 20,6 km/h (4 Bft)
14.02.2014 17:10 5,7 C 3,9 C 92 % 999,0 hPa 0,2 l/m 0 min 2 min 0,0 UV-I 7 W/m 23,2 km/h (4 Bft)
14.02.2014 17:12 5,7 C 3,9 C 92 % 998,9 hPa 0,0 l/m 0 min 2 min 0,0 UV-I 7 W/m 15,4 km/h (3 Bft)
14.02.2014 17:14 5,7 C 3,9 C 92 % 998,8 hPa 0,2 l/m 0 min 2 min 0,0 UV-I 7 W/m 20,6 km/h (4 Bft)
14.02.2014 17:16 5,6 C 3,9 C 92 % 998,8 hPa 0,0 l/m 0 min 2 min 0,0 UV-I 7 W/m 30,9 km/h (5 Bft)
14.02.2014 17:18 5,6 C 3,9 C 92 % 998,7 hPa 0,0 l/m 0 min 2 min 0,0 UV-I 5 W/m 12,9 km/h (3 Bft)
14.02.2014 17:20 5,6 C 3,9 C 93 % 998,7 hPa 0,0 l/m 0 min 2 min 0,0 UV-I 0 W/m 25,7 km/h (4 Bft)
14.02.2014 17:22 5,6 C 3,9 C 93 % 998,6 hPa 0,0 l/m 0 min 2 min 0,0 UV-I 0 W/m 23,2 km/h (4 Bft)
14.02.2014 17:24 5,6 C 3,9 C 93 % 998,6 hPa 0,2 l/m 0 min 2 min 0,0 UV-I 0 W/m 28,3 km/h (4 Bft)
14.02.2014 17:26 5,5 C 3,9 C 93 % 998,7 hPa 0,0 l/m 0 min 2 min 0,0 UV-I 0 W/m 23,2 km/h (4 Bft)
14.02.2014 17:28 5,5 C 3,9 C 93 % 998,7 hPa 0,2 l/m 0 min 2 min 0,0 UV-I 0 W/m 23,2 km/h (4 Bft)
14.02.2014 17:30 5,5 C 3,9 C 93 % 998,8 hPa 0,0 l/m 0 min 2 min 0,0 UV-I 0 W/m 25,7 km/h (4 Bft)
14.02.2014 17:32 5,5 C 3,9 C 93 % 998,9 hPa 0,0 l/m 0 min 2 min 0,0 UV-I 0 W/m 38,6 km/h (5 Bft)
14.02.2014 17:34 5,5 C 3,9 C 93 % 999,0 hPa 0,0 l/m 0 min 2 min 0,0 UV-I 0 W/m 36,0 km/h (5 Bft)
14.02.2014 17:36 5,5 C 3,9 C 93 % 999,0 hPa 0,0 l/m 0 min 2 min 0,0 UV-I 0 W/m 36,0 km/h (5 Bft)
14.02.2014 17:38 5,4 C 3,9 C 93 % 999,1 hPa 0,2 l/m 0 min 2 min 0,0 UV-I 0 W/m 41,2 km/h (6 Bft)
14.02.2014 17:40 5,5 C 3,9 C 94 % 999,2 hPa 0,0 l/m 0 min 2 min 0,0 UV-I 0 W/m 23,2 km/h (4 Bft)
14.02.2014 17:42 5,4 C 3,9 C 94 % 999,2 hPa 0,0 l/m 0 min 2 min 0,0 UV-I 0 W/m 38,6 km/h (5 Bft)
14.02.2014 17:44 5,4 C 3,9 C 94 % 999,2 hPa 0,2 l/m 0 min 2 min 0,0 UV-I 0 W/m 25,7 km/h (4 Bft)
14.02.2014 17:46 5,4 C 3,9 C 94 % 999,3 hPa 0,0 l/m 0 min 2 min 0,0 UV-I 0 W/m 30,9 km/h (5 Bft)
14.02.2014 17:48 5,4 C 3,9 C 94 % 999,3 hPa 0,2 l/m 0 min 2 min 0,0 UV-I 0 W/m 30,9 km/h (5 Bft)
14.02.2014 17:50 5,4 C 3,9 C 94 % 999,3 hPa 0,2 l/m 0 min 2 min 0,0 UV-I 0 W/m 30,9 km/h (5 Bft)
14.02.2014 17:52 5,4 C 3,9 C 94 % 999,4 hPa 0,0 l/m 0 min 2 min 0,0 UV-I 0 W/m 28,3 km/h (4 Bft)
14.02.2014 17:54 5,4 C 3,9 C 94 % 999,4 hPa 0,2 l/m 0 min 2 min 0,0 UV-I 0 W/m 36,0 km/h (5 Bft)
14.02.2014 17:56 5,4 C 3,9 C 94 % 999,4 hPa 0,0 l/m 0 min 2 min 0,0 UV-I 0 W/m 28,3 km/h (4 Bft)
14.02.2014 17:58 5,4 C 3,9 C 94 % 999,4 hPa 0,0 l/m 0 min 2 min 0,0 UV-I 0 W/m 25,7 km/h (4 Bft)
14.02.2014 18:00 5,4 C 3,9 C 94 % 999,4 hPa 0,2 l/m 0 min 2 min 0,0 UV-I 0 W/m 25,7 km/h (4 Bft)
14.02.2014 18:02 5,4 C 3,9 C 94 % 999,5 hPa 0,0 l/m 0 min 2 min 0,0 UV-I 0 W/m 30,9 km/h (5 Bft)
14.02.2014 18:04 5,4 C 3,9 C 94 % 999,4 hPa 0,0 l/m 0 min 2 min 0,0 UV-I 0 W/m 30,9 km/h (5 Bft)
14.02.2014 18:06 5,4 C 3,9 C 94 % 999,3 hPa 0,0 l/m 0 min 2 min 0,0 UV-I 0 W/m 23,2 km/h (4 Bft)
14.02.2014 18:08 5,4 C 3,9 C 94 % 999,3 hPa 0,2 l/m 0 min 2 min 0,0 UV-I 0 W/m 23,2 km/h (4 Bft)
14.02.2014 18:10 5,4 C 3,9 C 94 % 999,2 hPa 0,0 l/m 0 min 2 min 0,0 UV-I 0 W/m 28,3 km/h (4 Bft)
14.02.2014 18:12 5,4 C 3,9 C 94 % 999,1 hPa 0,0 l/m 0 min 2 min 0,0 UV-I 0 W/m 20,6 km/h (4 Bft)
14.02.2014 18:14 5,4 C 3,9 C 94 % 999,0 hPa 0,0 l/m 0 min 2 min 0,0 UV-I 0 W/m 36,0 km/h (5 Bft)
14.02.2014 18:16 5,4 C 3,9 C 94 % 998,8 hPa 0,2 l/m 0 min 2 min 0,0 UV-I 0 W/m 25,7 km/h (4 Bft)
14.02.2014 18:18 5,4 C 3,9 C 94 % 998,6 hPa 0,0 l/m 0 min 2 min 0,0 UV-I 0 W/m 23,2 km/h (4 Bft)
14.02.2014 18:20 5,4 C 3,9 C 94 % 998,6 hPa 0,0 l/m 0 min 2 min 0,0 UV-I 0 W/m 28,3 km/h (4 Bft)
14.02.2014 18:22 5,4 C 3,9 C 95 % 998,6 hPa 0,0 l/m 0 min 2 min 0,0 UV-I 0 W/m 28,3 km/h (4 Bft)
14.02.2014 18:24 5,4 C 3,9 C 95 % 998,6 hPa 0,0 l/m 0 min 2 min 0,0 UV-I 0 W/m 28,3 km/h (4 Bft)
14.02.2014 18:26 5,4 C 3,9 C 95 % 998,6 hPa 0,0 l/m 0 min 2 min 0,0 UV-I 0 W/m 28,3 km/h (4 Bft)
14.02.2014 18:28 5,4 C 3,9 C 95 % 998,6 hPa 0,0 l/m 0 min 2 min 0,0 UV-I 0 W/m 33,5 km/h (5 Bft)
14.02.2014 18:30 5,4 C 3,9 C 95 % 998,5 hPa 0,0 l/m 0 min 2 min 0,0 UV-I 0 W/m 28,3 km/h (4 Bft)
14.02.2014 18:32 5,4 C 3,9 C 95 % 998,5 hPa 0,2 l/m 0 min 2 min 0,0 UV-I 0 W/m 36,0 km/h (5 Bft)
14.02.2014 18:34 5,4 C 3,9 C 95 % 998,4 hPa 0,0 l/m 0 min 2 min 0,0 UV-I 0 W/m 28,3 km/h (4 Bft)
14.02.2014 18:36 5,4 C 3,9 C 95 % 998,5 hPa 0,0 l/m 0 min 2 min 0,0 UV-I 0 W/m 23,2 km/h (4 Bft)
14.02.2014 18:38 5,4 C 3,9 C 95 % 998,5 hPa 0,2 l/m 0 min 2 min 0,0 UV-I 0 W/m 30,9 km/h (5 Bft)
14.02.2014 18:40 5,4 C 3,9 C 95 % 998,5 hPa 0,0 l/m 0 min 2 min 0,0 UV-I 0 W/m 23,2 km/h (4 Bft)
14.02.2014 18:42 5,4 C 3,9 C 95 % 998,4 hPa 0,0 l/m 0 min 2 min 0,0 UV-I 0 W/m 25,7 km/h (4 Bft)
14.02.2014 18:44 5,4 C 3,9 C 95 % 998,4 hPa 0,0 l/m 0 min 2 min 0,0 UV-I 0 W/m 28,3 km/h (4 Bft)
14.02.2014 18:46 5,4 C 3,9 C 95 % 998,4 hPa 0,0 l/m 0 min 2 min 0,0 UV-I 0 W/m 33,5 km/h (5 Bft)
14.02.2014 18:48 5,4 C 3,9 C 95 % 998,4 hPa 0,0 l/m 0 min 2 min 0,0 UV-I 0 W/m 28,3 km/h (4 Bft)
14.02.2014 18:50 5,4 C 3,9 C 95 % 998,4 hPa 0,0 l/m 0 min 2 min 0,0 UV-I 0 W/m 33,5 km/h (5 Bft)
14.02.2014 18:52 5,4 C 3,9 C 95 % 998,3 hPa 0,0 l/m 0 min 2 min 0,0 UV-I 0 W/m 28,3 km/h (4 Bft)
14.02.2014 18:54 5,4 C 3,9 C 95 % 998,4 hPa 0,0 l/m 0 min 2 min 0,0 UV-I 0 W/m 25,7 km/h (4 Bft)
14.02.2014 18:56 5,4 C 3,9 C 95 % 998,2 hPa 0,0 l/m 0 min 2 min 0,0 UV-I 0 W/m 28,3 km/h (4 Bft)
14.02.2014 18:58 5,4 C 3,9 C 95 % 998,0 hPa 0,0 l/m 0 min 2 min 0,0 UV-I 0 W/m 23,2 km/h (4 Bft)
14.02.2014 19:00 5,4 C 3,9 C 95 % 998,4 hPa 0,2 l/m 0 min 2 min 0,0 UV-I 0 W/m 33,5 km/h (5 Bft)
14.02.2014 19:02 5,4 C 3,9 C 95 % 998,2 hPa 0,2 l/m 0 min 2 min 0,0 UV-I 0 W/m 38,6 km/h (5 Bft)
14.02.2014 19:04 5,4 C 3,9 C 95 % 998,0 hPa 0,0 l/m 0 min 2 min 0,0 UV-I 0 W/m 28,3 km/h (4 Bft)
14.02.2014 19:06 5,4 C 3,9 C 95 % 998,0 hPa 0,0 l/m 0 min 2 min 0,0 UV-I 0 W/m 33,5 km/h (5 Bft)
14.02.2014 19:08 5,4 C 3,9 C 95 % 998,0 hPa 0,2 l/m 0 min 2 min 0,0 UV-I 0 W/m 33,5 km/h (5 Bft)
14.02.2014 19:10 5,4 C 3,9 C 95 % 998,0 hPa 0,2 l/m 0 min 2 min 0,0 UV-I 0 W/m 38,6 km/h (5 Bft)
14.02.2014 19:12 5,4 C 3,9 C 95 % 997,8 hPa 0,0 l/m 0 min 2 min 0,0 UV-I 0 W/m 30,9 km/h (5 Bft)
14.02.2014 19:14 5,4 C 3,9 C 95 % 997,8 hPa 0,0 l/m 0 min 2 min 0,0 UV-I 0 W/m 33,5 km/h (5 Bft)
14.02.2014 19:16 5,4 C 3,9 C 95 % 997,8 hPa 0,2 l/m 0 min 2 min 0,0 UV-I 0 W/m 33,5 km/h (5 Bft)
14.02.2014 19:18 5,4 C 3,9 C 95 % 997,8 hPa 0,0 l/m 0 min 2 min 0,0 UV-I 0 W/m 33,5 km/h (5 Bft)
14.02.2014 19:20 5,4 C 3,9 C 95 % 997,8 hPa 0,0 l/m 0 min 2 min 0,0 UV-I 0 W/m 36,0 km/h (5 Bft)
14.02.2014 19:22 5,4 C 3,9 C 95 % 997,7 hPa 0,2 l/m 0 min 2 min 0,0 UV-I 0 W/m 28,3 km/h (4 Bft)
14.02.2014 19:24 5,4 C 3,9 C 96 % 997,6 hPa 0,0 l/m 0 min 2 min 0,0 UV-I 0 W/m 25,7 km/h (4 Bft)
14.02.2014 19:26 5,4 C 3,9 C 96 % 997,4 hPa 0,0 l/m 0 min 2 min 0,0 UV-I 0 W/m 41,2 km/h (6 Bft)
14.02.2014 19:28 5,4 C 3,9 C 96 % 997,3 hPa 0,2 l/m 0 min 2 min 0,0 UV-I 0 W/m 33,5 km/h (5 Bft)
14.02.2014 19:30 5,4 C 3,9 C 96 % 997,2 hPa 0,0 l/m 0 min 2 min 0,0 UV-I 0 W/m 33,5 km/h (5 Bft)
14.02.2014 19:32 5,4 C 3,9 C 96 % 997,3 hPa 0,0 l/m 0 min 2 min 0,0 UV-I 0 W/m 38,6 km/h (5 Bft)
14.02.2014 19:34 5,4 C 3,9 C 96 % 997,2 hPa 0,0 l/m 0 min 2 min 0,0 UV-I 0 W/m 30,9 km/h (5 Bft)
14.02.2014 19:36 5,4 C 3,9 C 96 % 997,2 hPa 0,0 l/m 0 min 2 min 0,0 UV-I 0 W/m 38,6 km/h (5 Bft)
14.02.2014 19:38 5,4 C 3,9 C 96 % 997,3 hPa 0,2 l/m 0 min 2 min 0,0 UV-I 0 W/m 41,2 km/h (6 Bft)
14.02.2014 19:40 5,4 C 3,9 C 96 % 997,2 hPa 0,0 l/m 0 min 2 min 0,0 UV-I 0 W/m 38,6 km/h (5 Bft)
14.02.2014 19:42 5,4 C 3,9 C 96 % 997,2 hPa 0,0 l/m 0 min 2 min 0,0 UV-I 0 W/m 36,0 km/h (5 Bft)
14.02.2014 19:44 5,4 C 3,9 C 96 % 997,1 hPa 0,0 l/m 0 min 2 min 0,0 UV-I 0 W/m 36,0 km/h (5 Bft)
14.02.2014 19:46 5,4 C 3,9 C 96 % 997,1 hPa 0,0 l/m 0 min 2 min 0,0 UV-I 0 W/m 30,9 km/h (5 Bft)
14.02.2014 19:48 5,4 C 3,9 C 96 % 997,1 hPa 0,0 l/m 0 min 2 min 0,0 UV-I 0 W/m 36,0 km/h (5 Bft)
14.02.2014 19:50 5,4 C 3,9 C 96 % 997,0 hPa 0,0 l/m 0 min 2 min 0,0 UV-I 0 W/m 41,2 km/h (6 Bft)
14.02.2014 19:52 5,4 C 3,9 C 96 % 996,9 hPa 0,0 l/m 0 min 2 min 0,0 UV-I 0 W/m 38,6 km/h (5 Bft)
14.02.2014 19:54 5,4 C 3,9 C 96 % 996,9 hPa 0,0 l/m 0 min 2 min 0,0 UV-I 0 W/m 48,9 km/h (6 Bft)
14.02.2014 19:56 5,4 C 3,9 C 96 % 996,9 hPa 0,2 l/m 0 min 2 min 0,0 UV-I 0 W/m 46,3 km/h (6 Bft)
14.02.2014 19:58 5,4 C 3,9 C 96 % 996,7 hPa 0,0 l/m 0 min 2 min 0,0 UV-I 0 W/m 36,0 km/h (5 Bft)
14.02.2014 20:00 5,4 C 3,9 C 96 % 996,7 hPa 0,0 l/m 0 min 2 min 0,0 UV-I 0 W/m 46,3 km/h (6 Bft)
14.02.2014 20:02 5,4 C 3,9 C 96 % 996,6 hPa 0,0 l/m 0 min 2 min 0,0 UV-I 0 W/m 30,9 km/h (5 Bft)
14.02.2014 20:04 5,4 C 3,9 C 96 % 996,6 hPa 0,0 l/m 0 min 2 min 0,0 UV-I 0 W/m 28,3 km/h (4 Bft)
14.02.2014 20:06 5,4 C 3,9 C 96 % 996,5 hPa 0,0 l/m 0 min 2 min 0,0 UV-I 0 W/m 30,9 km/h (5 Bft)
14.02.2014 20:08 5,4 C 3,9 C 96 % 996,4 hPa 0,0 l/m 0 min 2 min 0,0 UV-I 0 W/m 38,6 km/h (5 Bft)
14.02.2014 20:10 5,4 C 3,9 C 96 % 996,3 hPa 0,0 l/m 0 min 0 min 0,0 UV-I 0 W/m 38,6 km/h (5 Bft)
14.02.2014 20:12 5,4 C 3,9 C 96 % 996,2 hPa 0,0 l/m 0 min 0 min 0,0 UV-I 0 W/m 28,3 km/h (4 Bft)
14.02.2014 20:14 5,4 C 3,9 C 96 % 996,2 hPa 0,0 l/m 0 min 0 min 0,0 UV-I 0 W/m 41,2 km/h (6 Bft)
14.02.2014 20:16 5,4 C 3,9 C 96 % 996,0 hPa 0,0 l/m 0 min 0 min 0,0 UV-I 0 W/m 36,0 km/h (5 Bft)
14.02.2014 20:18 5,4 C 3,9 C 96 % 996,0 hPa 0,0 l/m 0 min 0 min 0,0 UV-I 0 W/m 33,5 km/h (5 Bft)
14.02.2014 20:20 5,4 C 3,9 C 96 % 995,8 hPa 0,0 l/m 0 min 0 min 0,0 UV-I 0 W/m 33,5 km/h (5 Bft)
14.02.2014 20:22 5,4 C 3,9 C 97 % 995,8 hPa 0,0 l/m 0 min 0 min 0,0 UV-I 0 W/m 23,2 km/h (4 Bft)
14.02.2014 20:24 5,4 C 3,9 C 97 % 995,9 hPa 0,0 l/m 0 min 0 min 0,0 UV-I 0 W/m 38,6 km/h (5 Bft)
14.02.2014 20:26 5,4 C 3,9 C 97 % 995,9 hPa 0,0 l/m 0 min 0 min 0,0 UV-I 0 W/m 33,5 km/h (5 Bft)
14.02.2014 20:28 5,4 C 3,9 C 97 % 995,8 hPa 0,0 l/m 0 min 0 min 0,0 UV-I 0 W/m 25,7 km/h (4 Bft)
14.02.2014 20:30 5,4 C 3,9 C 97 % 995,9 hPa 0,0 l/m 0 min 0 min 0,0 UV-I 0 W/m 36,0 km/h (5 Bft)
14.02.2014 20:32 5,4 C 3,9 C 97 % 995,7 hPa 0,0 l/m 0 min 0 min 0,0 UV-I 0 W/m 38,6 km/h (5 Bft)
14.02.2014 20:34 5,4 C 3,9 C 97 % 995,6 hPa 0,0 l/m 0 min 0 min 0,0 UV-I 0 W/m 33,5 km/h (5 Bft)
14.02.2014 20:36 5,3 C 3,9 C 97 % 995,6 hPa 0,0 l/m 0 min 0 min 0,0 UV-I 0 W/m 30,9 km/h (5 Bft)
14.02.2014 20:38 5,3 C 3,9 C 96 % 995,6 hPa 0,0 l/m 0 min 0 min 0,0 UV-I 0 W/m 28,3 km/h (4 Bft)
14.02.2014 20:40 5,3 C 3,9 C 96 % 995,6 hPa 0,0 l/m 0 min 0 min 0,0 UV-I 0 W/m 30,9 km/h (5 Bft)
14.02.2014 20:42 5,3 C 3,9 C 96 % 995,6 hPa 0,0 l/m 0 min 0 min 0,0 UV-I 0 W/m 36,0 km/h (5 Bft)
14.02.2014 20:44 5,3 C 3,9 C 96 % 995,7 hPa 0,0 l/m 0 min 0 min 0,0 UV-I 0 W/m 30,9 km/h (5 Bft)
14.02.2014 20:46 5,3 C 3,9 C 96 % 995,6 hPa 0,0 l/m 0 min 0 min 0,0 UV-I 0 W/m 28,3 km/h (4 Bft)
14.02.2014 20:48 5,3 C 3,9 C 96 % 995,6 hPa 0,0 l/m 0 min 0 min 0,0 UV-I 0 W/m 38,6 km/h (5 Bft)
14.02.2014 20:50 5,3 C 3,9 C 96 % 995,5 hPa 0,0 l/m 0 min 0 min 0,0 UV-I 0 W/m 33,5 km/h (5 Bft)
14.02.2014 20:52 5,3 C 3,9 C 96 % 995,4 hPa 0,0 l/m 0 min 0 min 0,0 UV-I 0 W/m 23,2 km/h (4 Bft)
14.02.2014 20:54 5,3 C 3,9 C 96 % 995,4 hPa 0,0 l/m 0 min 0 min 0,0 UV-I 0 W/m 46,3 km/h (6 Bft)
14.02.2014 20:56 5,3 C 3,9 C 96 % 995,4 hPa 0,0 l/m 0 min 0 min 0,0 UV-I 0 W/m 28,3 km/h (4 Bft)
14.02.2014 20:58 5,3 C 3,9 C 96 % 995,5 hPa 0,0 l/m 0 min 0 min 0,0 UV-I 0 W/m 36,0 km/h (5 Bft)
14.02.2014 21:00 5,3 C 3,9 C 96 % 995,5 hPa 0,0 l/m 0 min 0 min 0,0 UV-I 0 W/m 25,7 km/h (4 Bft)
14.02.2014 21:02 5,3 C 3,9 C 96 % 995,5 hPa 0,0 l/m 0 min 0 min 0,0 UV-I 0 W/m 41,2 km/h (6 Bft)
14.02.2014 21:04 5,3 C 3,9 C 96 % 995,2 hPa 0,0 l/m 0 min 0 min 0,0 UV-I 0 W/m 36,0 km/h (5 Bft)
14.02.2014 21:06 5,3 C 3,9 C 96 % 995,1 hPa 0,0 l/m 0 min 0 min 0,0 UV-I 0 W/m 28,3 km/h (4 Bft)
14.02.2014 21:08 5,3 C 3,9 C 96 % 995,1 hPa 0,0 l/m 0 min 0 min 0,0 UV-I 0 W/m 36,0 km/h (5 Bft)
14.02.2014 21:10 5,3 C 3,9 C 96 % 995,0 hPa 0,0 l/m 0 min 0 min 0,0 UV-I 0 W/m 38,6 km/h (5 Bft)
14.02.2014 21:12 5,4 C 3,9 C 96 % 994,9 hPa 0,0 l/m 0 min 0 min 0,0 UV-I 0 W/m 38,6 km/h (5 Bft)
14.02.2014 21:14 5,4 C 3,9 C 97 % 994,7 hPa 0,0 l/m 0 min 0 min 0,0 UV-I 0 W/m 38,6 km/h (5 Bft)
14.02.2014 21:16 5,4 C 3,9 C 97 % 994,6 hPa 0,0 l/m 0 min 0 min 0,0 UV-I 0 W/m 51,5 km/h (7 Bft)
14.02.2014 21:18 5,4 C 3,9 C 96 % 994,6 hPa 0,0 l/m 0 min 0 min 0,0 UV-I 0 W/m 28,3 km/h (4 Bft)
14.02.2014 21:20 5,4 C 3,9 C 96 % 994,8 hPa 0,0 l/m 0 min 0 min 0,0 UV-I 0 W/m 30,9 km/h (5 Bft)
14.02.2014 21:22 5,4 C 3,9 C 96 % 994,8 hPa 0,0 l/m 0 min 0 min 0,0 UV-I 0 W/m 36,0 km/h (5 Bft)
14.02.2014 21:24 5,4 C 3,9 C 96 % 994,7 hPa 0,0 l/m 0 min 0 min 0,0 UV-I 0 W/m 30,9 km/h (5 Bft)
14.02.2014 21:26 5,4 C 3,9 C 96 % 994,7 hPa 0,0 l/m 0 min 0 min 0,0 UV-I 0 W/m 33,5 km/h (5 Bft)
14.02.2014 21:28 5,4 C 3,9 C 96 % 994,6 hPa 0,0 l/m 0 min 0 min 0,0 UV-I 0 W/m 38,6 km/h (5 Bft)
14.02.2014 21:30 5,4 C 3,9 C 96 % 994,4 hPa 0,0 l/m 0 min 0 min 0,0 UV-I 0 W/m 30,9 km/h (5 Bft)
14.02.2014 21:32 5,4 C 3,9 C 96 % 994,4 hPa 0,0 l/m 0 min 0 min 0,0 UV-I 0 W/m 30,9 km/h (5 Bft)
14.02.2014 21:34 5,4 C 3,9 C 96 % 994,5 hPa 0,0 l/m 0 min 0 min 0,0 UV-I 0 W/m 33,5 km/h (5 Bft)
14.02.2014 21:36 5,4 C 3,9 C 96 % 994,4 hPa 0,0 l/m 0 min 0 min 0,0 UV-I 0 W/m 28,3 km/h (4 Bft)
14.02.2014 21:38 5,4 C 3,9 C 96 % 994,3 hPa 0,0 l/m 0 min 0 min 0,0 UV-I 0 W/m 23,2 km/h (4 Bft)
14.02.2014 21:40 5,4 C 3,9 C 96 % 994,2 hPa 0,0 l/m 0 min 0 min 0,0 UV-I 0 W/m 25,7 km/h (4 Bft)
14.02.2014 21:42 5,5 C 3,9 C 96 % 994,2 hPa 0,0 l/m 0 min 0 min 0,0 UV-I 0 W/m 30,9 km/h (5 Bft)
14.02.2014 21:44 5,5 C 3,9 C 96 % 994,1 hPa 0,0 l/m 0 min 0 min 0,0 UV-I 0 W/m 20,6 km/h (4 Bft)
14.02.2014 21:46 5,5 C 3,9 C 96 % 994,1 hPa 0,0 l/m 0 min 0 min 0,0 UV-I 0 W/m 28,3 km/h (4 Bft)
14.02.2014 21:48 5,6 C 3,9 C 96 % 994,0 hPa 0,0 l/m 0 min 0 min 0,0 UV-I 0 W/m 33,5 km/h (5 Bft)
14.02.2014 21:50 5,6 C 3,9 C 96 % 994,1 hPa 0,0 l/m 0 min 0 min 0,0 UV-I 0 W/m 28,3 km/h (4 Bft)
14.02.2014 21:52 5,6 C 3,9 C 96 % 994,0 hPa 0,0 l/m 0 min 0 min 0,0 UV-I 0 W/m 18,0 km/h (3 Bft)
14.02.2014 21:54 5,6 C 3,9 C 96 % 993,9 hPa 0,0 l/m 0 min 0 min 0,0 UV-I 0 W/m 28,3 km/h (4 Bft)
14.02.2014 21:56 5,6 C 3,9 C 96 % 993,8 hPa 0,0 l/m 0 min 0 min 0,0 UV-I 0 W/m 41,2 km/h (6 Bft)
14.02.2014 21:58 5,7 C 3,9 C 96 % 993,8 hPa 0,0 l/m 0 min 0 min 0,0 UV-I 0 W/m 38,6 km/h (5 Bft)
14.02.2014 22:00 5,7 C 4,4 C 96 % 993,7 hPa 0,0 l/m 0 min 0 min 0,0 UV-I 0 W/m 38,6 km/h (5 Bft)
14.02.2014 22:02 5,7 C 4,4 C 96 % 993,5 hPa 0,0 l/m 0 min 0 min 0,0 UV-I 0 W/m 28,3 km/h (4 Bft)
14.02.2014 22:06 5,8 C 4,4 C 96 % 993,5 hPa 0,0 l/m 0 min 0 min 0,0 UV-I 0 W/m 43,8 km/h (6 Bft)
14.02.2014 22:08 5,8 C 4,4 C 95 % 993,5 hPa 0,0 l/m 0 min 0 min 0,0 UV-I 0 W/m 41,2 km/h (6 Bft)
14.02.2014 22:10 5,8 C 4,4 C 95 % 993,5 hPa 0,0 l/m 0 min 0 min 0,0 UV-I 0 W/m 38,6 km/h (5 Bft)
14.02.2014 22:12 5,8 C 4,4 C 95 % 993,4 hPa 0,0 l/m 0 min 0 min 0,0 UV-I 0 W/m 41,2 km/h (6 Bft)
14.02.2014 22:14 5,8 C 4,4 C 95 % 993,4 hPa 0,0 l/m 0 min 0 min 0,0 UV-I 0 W/m 38,6 km/h (5 Bft)
14.02.2014 22:16 5,9 C 4,4 C 95 % 993,3 hPa 0,0 l/m 0 min 0 min 0,0 UV-I 0 W/m 33,5 km/h (5 Bft)
14.02.2014 22:18 5,9 C 4,4 C 95 % 993,3 hPa 0,0 l/m 0 min 0 min 0,0 UV-I 0 W/m 38,6 km/h (5 Bft)
14.02.2014 22:20 5,9 C 4,4 C 95 % 993,4 hPa 0,0 l/m 0 min 0 min 0,0 UV-I 0 W/m 36,0 km/h (5 Bft)
14.02.2014 22:22 5,9 C 4,4 C 95 % 993,1 hPa 0,0 l/m 0 min 0 min 0,0 UV-I 0 W/m 33,5 km/h (5 Bft)
14.02.2014 22:24 5,9 C 4,4 C 95 % 993,1 hPa 0,0 l/m 0 min 0 min 0,0 UV-I 0 W/m 38,6 km/h (5 Bft)
14.02.2014 22:26 5,9 C 4,4 C 95 % 993,1 hPa 0,0 l/m 0 min 0 min 0,0 UV-I 0 W/m 33,5 km/h (5 Bft)
14.02.2014 22:28 5,9 C 4,4 C 95 % 993,0 hPa 0,0 l/m 0 min 0 min 0,0 UV-I 0 W/m 38,6 km/h (5 Bft)
14.02.2014 22:30 5,9 C 4,4 C 95 % 992,9 hPa 0,0 l/m 0 min 0 min 0,0 UV-I 0 W/m 25,7 km/h (4 Bft)
14.02.2014 22:32 5,9 C 4,4 C 94 % 992,8 hPa 0,0 l/m 0 min 0 min 0,0 UV-I 0 W/m 25,7 km/h (4 Bft)
14.02.2014 22:34 6,0 C 4,4 C 95 % 992,8 hPa 0,0 l/m 0 min 0 min 0,0 UV-I 0 W/m 41,2 km/h (6 Bft)
14.02.2014 22:36 6,0 C 4,4 C 94 % 992,7 hPa 0,0 l/m 0 min 0 min 0,0 UV-I 0 W/m 28,3 km/h (4 Bft)
14.02.2014 22:38 6,0 C 4,4 C 94 % 992,6 hPa 0,0 l/m 0 min 0 min 0,0 UV-I 0 W/m 33,5 km/h (5 Bft)
14.02.2014 22:40 6,0 C 4,4 C 94 % 992,4 hPa 0,0 l/m 0 min 0 min 0,0 UV-I 0 W/m 46,3 km/h (6 Bft)
14.02.2014 22:42 6,0 C 4,4 C 94 % 992,4 hPa 0,0 l/m 0 min 0 min 0,0 UV-I 0 W/m 38,6 km/h (5 Bft)
14.02.2014 22:44 6,1 C 4,4 C 94 % 992,4 hPa 0,0 l/m 0 min 0 min 0,0 UV-I 0 W/m 28,3 km/h (4 Bft)
14.02.2014 22:46 6,1 C 4,4 C 94 % 992,5 hPa 0,0 l/m 0 min 0 min 0,0 UV-I 0 W/m 30,9 km/h (5 Bft)
14.02.2014 22:48 6,1 C 4,4 C 94 % 992,4 hPa 0,0 l/m 0 min 0 min 0,0 UV-I 0 W/m 41,2 km/h (6 Bft)
14.02.2014 22:50 6,1 C 4,4 C 94 % 992,3 hPa 0,0 l/m 0 min 0 min 0,0 UV-I 0 W/m 36,0 km/h (5 Bft)
14.02.2014 22:52 6,1 C 4,4 C 94 % 992,5 hPa 0,0 l/m 0 min 0 min 0,0 UV-I 0 W/m 41,2 km/h (6 Bft)
14.02.2014 22:54 6,1 C 4,4 C 94 % 992,4 hPa 0,0 l/m 0 min 0 min 0,0 UV-I 0 W/m 41,2 km/h (6 Bft)
14.02.2014 22:56 6,1 C 4,4 C 94 % 992,5 hPa 0,0 l/m 0 min 0 min 0,0 UV-I 0 W/m 33,5 km/h (5 Bft)
14.02.2014 22:58 6,2 C 4,4 C 94 % 992,5 hPa 0,0 l/m 0 min 0 min 0,0 UV-I 0 W/m 48,9 km/h (6 Bft)
14.02.2014 23:00 6,2 C 4,4 C 93 % 992,5 hPa 0,0 l/m 0 min 0 min 0,0 UV-I 0 W/m 38,6 km/h (5 Bft)
14.02.2014 23:02 6,2 C 4,4 C 93 % 992,5 hPa 0,0 l/m 0 min 0 min 0,0 UV-I 0 W/m 28,3 km/h (4 Bft)
14.02.2014 23:04 6,2 C 4,4 C 93 % 992,5 hPa 0,0 l/m 0 min 0 min 0,0 UV-I 0 W/m 33,5 km/h (5 Bft)
14.02.2014 23:06 6,2 C 4,4 C 93 % 992,6 hPa 0,0 l/m 0 min 0 min 0,0 UV-I 0 W/m 15,4 km/h (3 Bft)
14.02.2014 23:08 6,3 C 4,4 C 93 % 992,5 hPa 0,0 l/m 0 min 0 min 0,0 UV-I 0 W/m 25,7 km/h (4 Bft)
14.02.2014 23:10 6,3 C 4,4 C 93 % 992,7 hPa 0,0 l/m 0 min 0 min 0,0 UV-I 0 W/m 30,9 km/h (5 Bft)
14.02.2014 23:12 6,3 C 4,4 C 93 % 992,7 hPa 0,0 l/m 0 min 0 min 0,0 UV-I 0 W/m 20,6 km/h (4 Bft)
14.02.2014 23:14 6,3 C 4,4 C 93 % 992,6 hPa 0,0 l/m 0 min 0 min 0,0 UV-I 0 W/m 33,5 km/h (5 Bft)
14.02.2014 23:16 6,4 C 4,4 C 93 % 992,3 hPa 0,0 l/m 0 min 0 min 0,0 UV-I 0 W/m 28,3 km/h (4 Bft)
14.02.2014 23:18 6,4 C 5,0 C 93 % 992,3 hPa 0,0 l/m 0 min 0 min 0,0 UV-I 0 W/m 46,3 km/h (6 Bft)
14.02.2014 23:20 6,4 C 5,0 C 93 % 992,3 hPa 0,0 l/m 0 min 0 min 0,0 UV-I 0 W/m 33,5 km/h (5 Bft)
14.02.2014 23:22 6,4 C 5,0 C 93 % 992,5 hPa 0,0 l/m 0 min 0 min 0,0 UV-I 0 W/m 30,9 km/h (5 Bft)
14.02.2014 23:24 6,4 C 5,0 C 93 % 992,5 hPa 0,0 l/m 0 min 0 min 0,0 UV-I 0 W/m 25,7 km/h (4 Bft)
14.02.2014 23:26 6,4 C 5,0 C 93 % 992,4 hPa 0,0 l/m 0 min 0 min 0,0 UV-I 0 W/m 36,0 km/h (5 Bft)
14.02.2014 23:28 6,5 C 5,0 C 93 % 992,4 hPa 0,0 l/m 0 min 0 min 0,0 UV-I 0 W/m 38,6 km/h (5 Bft)
14.02.2014 23:30 6,5 C 5,0 C 92 % 992,4 hPa 0,0 l/m 0 min 0 min 0,0 UV-I 0 W/m 28,3 km/h (4 Bft)
14.02.2014 23:32 6,5 C 5,0 C 93 % 992,5 hPa 0,0 l/m 0 min 0 min 0,0 UV-I 0 W/m 36,0 km/h (5 Bft)
14.02.2014 23:34 6,6 C 5,0 C 92 % 992,2 hPa 0,0 l/m 0 min 0 min 0,0 UV-I 0 W/m 38,6 km/h (5 Bft)
14.02.2014 23:36 6,6 C 5,0 C 92 % 992,3 hPa 0,0 l/m 0 min 0 min 0,0 UV-I 0 W/m 33,5 km/h (5 Bft)
14.02.2014 23:38 6,6 C 5,0 C 92 % 992,6 hPa 0,0 l/m 0 min 0 min 0,0 UV-I 0 W/m 30,9 km/h (5 Bft)
14.02.2014 23:40 6,6 C 5,0 C 92 % 992,8 hPa 0,0 l/m 0 min 0 min 0,0 UV-I 0 W/m 28,3 km/h (4 Bft)
14.02.2014 23:42 6,6 C 5,0 C 92 % 992,6 hPa 0,0 l/m 0 min 0 min 0,0 UV-I 0 W/m 28,3 km/h (4 Bft)
14.02.2014 23:44 6,6 C 5,0 C 92 % 992,5 hPa 0,0 l/m 0 min 0 min 0,0 UV-I 0 W/m 30,9 km/h (5 Bft)
14.02.2014 23:46 6,6 C 5,0 C 92 % 992,4 hPa 0,0 l/m 0 min 0 min 0,0 UV-I 0 W/m 33,5 km/h (5 Bft)
14.02.2014 23:48 6,7 C 5,0 C 92 % 992,3 hPa 0,0 l/m 0 min 0 min 0,0 UV-I 0 W/m 36,0 km/h (5 Bft)
14.02.2014 23:50 6,7 C 5,0 C 91 % 992,2 hPa 0,0 l/m 0 min 0 min 0,0 UV-I 0 W/m 41,2 km/h (6 Bft)
14.02.2014 23:52 6,7 C 5,0 C 91 % 992,3 hPa 0,0 l/m 0 min 0 min 0,0 UV-I 0 W/m 33,5 km/h (5 Bft)
14.02.2014 23:54 6,7 C 5,0 C 92 % 992,3 hPa 0,0 l/m 0 min 0 min 0,0 UV-I 0 W/m 25,7 km/h (4 Bft)
14.02.2014 23:56 6,7 C 5,0 C 92 % 992,2 hPa 0,0 l/m 0 min 0 min 0,0 UV-I 0 W/m 36,0 km/h (5 Bft)
14.02.2014 23:58 6,7 C 5,0 C 91 % 992,3 hPa 0,0 l/m 0 min 0 min 0,0 UV-I 0 W/m 20,6 km/h (4 Bft)
_ Min-Zeit 07:06 07:20 13:02 23:34 - - - - - 06:08
Minimum _ 1,7 C -0,6 C 75 % 992,2 hPa - - - - - 0,0 km/h (0 Bft)
_ Max-Zeit 13:40 13:24 20:22 10:10 00:08 08:10 15:36 00:00 11:14 21:16
Maximum _ 8,1 C 7,8 C 97 % 1006,5 hPa 0,2 l/m 2 min 2 min 0,0 UV-I 323 W/m 51,5 km/h
SO (7 Bft)
Durchschnitt _ 4,9 C 3,5 C 89 % 1001,8 hPa #6,0 l/m #2:30 h #4:34 h 0,0 UV-I 134 W/m 20,2 km/h (4 Bft)
© 2014 W. Hausmann